| time (UTC) | temp C | wind direction | speed KPH | gust KPH | rain 1hr cm | rain 24hr cm | rain mn cm | humidity % | barometer mb |
| 20260504050703 | 16 | 293 | 1.6 | 8.0 | 0.00 | 0.00 | 0.00 | 69 | 1020.3 |
| 20260504050603 | 16 | 293 | 3.2 | 8.0 | 0.00 | 0.00 | 0.00 | 69 | 1020.3 |
| 20260504050503 | 16 | 293 | 1.6 | 8.0 | 0.00 | 0.00 | 0.00 | 69 | 1020.2 |
| 20260504050403 | 16 | 293 | 1.6 | 8.0 | 0.00 | 0.00 | 0.00 | 69 | 1020.2 |
| 20260504050303 | 16 | 291 | 1.6 | 8.0 | 0.00 | 0.00 | 0.00 | 69 | 1020.2 |
| 20260504050203 | 16 | 291 | 1.6 | 8.0 | 0.00 | 0.00 | 0.00 | 69 | 1020.2 |
| 20260504050104 | 16 | 290 | 1.6 | 8.0 | 0.00 | 0.00 | 0.00 | 70 | 1020.3 |
| 20260504050004 | 16 | 291 | 1.6 | 6.4 | 0.00 | 0.00 | 0.00 | 69 | 1020.2 |
| 20260504045904 | 16 | 290 | 1.6 | 6.4 | 0.00 | 0.00 | 0.00 | 69 | 1020.1 |
| 20260504045804 | 16 | 290 | 1.6 | 6.4 | 0.00 | 0.00 | 0.00 | 69 | 1020.1 |
| 20260504045704 | 16 | 289 | 1.6 | 6.4 | 0.00 | 0.00 | 0.00 | 70 | 1020.1 |
| 20260504045604 | 16 | 288 | 1.6 | 6.4 | 0.00 | 0.00 | 0.00 | 70 | 1020.1 |
| 20260504045504 | 16 | 288 | 1.6 | 8.0 | 0.00 | 0.00 | 0.00 | 70 | 1020.1 |
| 20260504045404 | 16 | 288 | 1.6 | 8.0 | 0.00 | 0.00 | 0.00 | 70 | 1020.1 |
| 20260504045304 | 16 | 286 | 0.0 | 8.0 | 0.00 | 0.00 | 0.00 | 70 | 1020.0 |
| 20260504045204 | 16 | 287 | 0.0 | 8.0 | 0.00 | 0.00 | 0.00 | 70 | 1020.0 |
| 20260504045104 | 16 | 288 | 0.0 | 8.0 | 0.00 | 0.00 | 0.00 | 70 | 1020.0 |
| 20260504045004 | 16 | 290 | 1.6 | 8.0 | 0.00 | 0.00 | 0.00 | 70 | 1020.0 |
| 20260504044904 | 16 | 291 | 1.6 | 8.0 | 0.00 | 0.00 | 0.00 | 70 | 1020.0 |
| 20260504044804 | 16 | 291 | 1.6 | 8.0 | 0.00 | 0.00 | 0.00 | 70 | 1020.0 |
| 20260504044704 | 16 | 293 | 1.6 | 8.0 | 0.00 | 0.00 | 0.00 | 70 | 1020.0 |
| 20260504044604 | 16 | 293 | 1.6 | 8.0 | 0.00 | 0.00 | 0.00 | 70 | 1020.0 |
| 20260504044504 | 16 | 293 | 1.6 | 6.4 | 0.00 | 0.00 | 0.00 | 70 | 1020.0 |
| 20260504044404 | 16 | 293 | 1.6 | 6.4 | 0.00 | 0.00 | 0.00 | 70 | 1020.0 |
| 20260504044304 | 16 | 296 | 1.6 | 6.4 | 0.00 | 0.00 | 0.00 | 70 | 1020.0 |
| 20260504044204 | 16 | 296 | 1.6 | 6.4 | 0.00 | 0.00 | 0.00 | 70 | 1020.0 |
| 20260504044104 | 16 | 296 | 1.6 | 6.4 | 0.00 | 0.00 | 0.00 | 70 | 1020.0 |
| 20260504044004 | 15 | 297 | 1.6 | 6.4 | 0.00 | 0.00 | 0.00 | 70 | 1020.0 |
| 20260504043904 | 15 | 297 | 0.0 | 6.4 | 0.00 | 0.00 | 0.00 | 70 | 1020.0 |
| 20260504043804 | 15 | 297 | 0.0 | 6.4 | 0.00 | 0.00 | 0.00 | 70 | 1019.9 |
| 20260504043704 | 15 | 300 | 0.0 | 4.8 | 0.00 | 0.00 | 0.00 | 70 | 1019.9 |
| 20260504043604 | 15 | 301 | 0.0 | 4.8 | 0.00 | 0.00 | 0.00 | 70 | 1019.9 |
| 20260504043504 | 15 | 301 | 0.0 | 4.8 | 0.00 | 0.00 | 0.00 | 70 | 1019.9 |
| 20260504043404 | 15 | 301 | 0.0 | 4.8 | 0.00 | 0.00 | 0.00 | 71 | 1019.9 |
| 20260504043304 | 15 | 292 | 0.0 | 3.2 | 0.00 | 0.00 | 0.00 | 71 | 1019.9 |
| 20260504043204 | 15 | 292 | 0.0 | 3.2 | 0.00 | 0.00 | 0.00 | 71 | 1019.8 |
| 20260504043104 | 15 | 292 | 0.0 | 1.6 | 0.00 | 0.00 | 0.00 | 71 | 1019.9 |
| 20260504043004 | 15 | 0 | 0.0 | 0.0 | 0.00 | 0.00 | 0.00 | 72 | 1020.0 |
| 20260504042904 | 15 | 0 | 0.0 | 0.0 | 0.00 | 0.00 | 0.00 | 72 | 1020.0 |
| 20260504042804 | 15 | 0 | 0.0 | 0.0 | 0.00 | 0.00 | 0.00 | 72 | 1020.0 |
| 20260504042704 | 15 | 0 | 0.0 | 0.0 | 0.00 | 0.00 | 0.00 | 72 | 1020.1 |
| 20260504042604 | 15 | 0 | 0.0 | 0.0 | 0.00 | 0.00 | 0.00 | 72 | 1020.1 |
| 20260504042504 | 15 | 0 | 0.0 | 0.0 | 0.00 | 0.00 | 0.00 | 72 | 1020.0 |
| 20260504042404 | 15 | 315 | 0.0 | 1.6 | 0.00 | 0.00 | 0.00 | 72 | 1020.0 |
| 20260504042304 | 15 | 315 | 0.0 | 3.2 | 0.00 | 0.00 | 0.00 | 72 | 1020.0 |
| 20260504042204 | 15 | 307 | 0.0 | 3.2 | 0.00 | 0.00 | 0.00 | 72 | 1019.9 |
| 20260504042104 | 15 | 310 | 0.0 | 3.2 | 0.00 | 0.00 | 0.00 | 72 | 1019.9 |
| 20260504042004 | 15 | 302 | 1.6 | 8.0 | 0.00 | 0.00 | 0.00 | 72 | 1019.9 |
| 20260504041904 | 15 | 301 | 1.6 | 8.0 | 0.00 | 0.00 | 0.00 | 73 | 1020.0 |
| 20260504041804 | 15 | 300 | 1.6 | 8.0 | 0.00 | 0.00 | 0.00 | 72 | 1019.9 |
| 20260504041704 | 15 | 300 | 1.6 | 8.0 | 0.00 | 0.00 | 0.00 | 72 | 1019.9 |
| 20260504041604 | 15 | 300 | 1.6 | 8.0 | 0.00 | 0.00 | 0.00 | 72 | 1019.9 |
| 20260504041504 | 15 | 299 | 1.6 | 8.0 | 0.00 | 0.00 | 0.00 | 72 | 1019.8 |
| 20260504041404 | 15 | 299 | 1.6 | 8.0 | 0.00 | 0.00 | 0.00 | 72 | 1019.8 |
| 20260504041304 | 15 | 297 | 1.6 | 8.0 | 0.00 | 0.00 | 0.00 | 72 | 1019.7 |
| 20260504041204 | 15 | 296 | 1.6 | 8.0 | 0.00 | 0.00 | 0.00 | 72 | 1019.8 |
| 20260504041104 | 15 | 294 | 1.6 | 8.0 | 0.00 | 0.00 | 0.00 | 72 | 1019.8 |
| 20260504041004 | 15 | 293 | 0.0 | 4.8 | 0.00 | 0.00 | 0.00 | 72 | 1019.8 |
| 20260504040904 | 15 | 296 | 0.0 | 3.2 | 0.00 | 0.00 | 0.00 | 72 | 1019.8 |
| 20260504040804 | 15 | 296 | 0.0 | 3.2 | 0.00 | 0.00 | 0.00 | 72 | 1019.8 |
| 20260504040704 | 15 | 295 | 0.0 | 4.8 | 0.00 | 0.00 | 0.00 | 72 | 1019.9 |
| 20260504040604 | 15 | 295 | 0.0 | 4.8 | 0.00 | 0.00 | 0.00 | 72 | 1019.8 |
| 20260504040504 | 15 | 295 | 0.0 | 4.8 | 0.00 | 0.00 | 0.00 | 72 | 1019.8 |
| 20260504040404 | 15 | 295 | 0.0 | 4.8 | 0.00 | 0.00 | 0.00 | 72 | 1019.9 |
| 20260504040304 | 15 | 295 | 0.0 | 4.8 | 0.00 | 0.00 | 0.00 | 72 | 1019.9 |
| 20260504040203 | 15 | 295 | 0.0 | 4.8 | 0.00 | 0.00 | 0.00 | 73 | 1019.9 |
| 20260504040104 | 15 | 293 | 0.0 | 4.8 | 0.00 | 0.00 | 0.00 | 73 | 1020.0 |
| 20260504040004 | 15 | 293 | 0.0 | 4.8 | 0.00 | 0.00 | 0.00 | 73 | 1020.0 |
| 20260504035903 | 15 | 292 | 0.0 | 4.8 | 0.00 | 0.00 | 0.00 | 73 | 1019.9 |
| 20260504035804 | 15 | 292 | 0.0 | 4.8 | 0.00 | 0.00 | 0.00 | 73 | 1019.9 |
| 20260504035703 | 15 | 292 | 0.0 | 4.8 | 0.00 | 0.00 | 0.00 | 73 | 1020.0 |
| 20260504035604 | 15 | 292 | 0.0 | 4.8 | 0.00 | 0.00 | 0.00 | 73 | 1020.0 |
| 20260504035504 | 15 | 292 | 0.0 | 4.8 | 0.00 | 0.00 | 0.00 | 73 | 1020.0 |
| 20260504035403 | 15 | 292 | 0.0 | 4.8 | 0.00 | 0.00 | 0.00 | 73 | 1020.0 |
| 20260504035305 | 15 | 292 | 0.0 | 4.8 | 0.00 | 0.00 | 0.00 | 73 | 1020.0 |
| 20260504035204 | 15 | 292 | 0.0 | 4.8 | 0.00 | 0.00 | 0.00 | 73 | 1019.9 |
| 20260504035103 | 15 | 292 | 0.0 | 4.8 | 0.00 | 0.00 | 0.00 | 73 | 1020.0 |
| 20260504035003 | 15 | 292 | 0.0 | 4.8 | 0.00 | 0.00 | 0.00 | 73 | 1020.0 |
| 20260504034903 | 15 | 292 | 0.0 | 4.8 | 0.00 | 0.00 | 0.00 | 73 | 1020.0 |
| 20260504034803 | 15 | 291 | 1.6 | 8.0 | 0.00 | 0.00 | 0.00 | 73 | 1019.9 |
| 20260504034703 | 15 | 292 | 1.6 | 8.0 | 0.00 | 0.00 | 0.00 | 73 | 1019.8 |
| 20260504034603 | 15 | 292 | 1.6 | 8.0 | 0.00 | 0.00 | 0.00 | 73 | 1019.8 |
| 20260504034503 | 15 | 292 | 1.6 | 8.0 | 0.00 | 0.00 | 0.00 | 73 | 1019.7 |
| 20260504034403 | 15 | 292 | 1.6 | 8.0 | 0.00 | 0.00 | 0.00 | 73 | 1019.7 |
| 20260504034303 | 15 | 292 | 1.6 | 8.0 | 0.00 | 0.00 | 0.00 | 73 | 1019.8 |
| 20260504034203 | 15 | 292 | 1.6 | 8.0 | 0.00 | 0.00 | 0.00 | 74 | 1019.9 |
| 20260504034103 | 15 | 292 | 1.6 | 8.0 | 0.00 | 0.00 | 0.00 | 74 | 1019.8 |
| 20260504034003 | 15 | 292 | 1.6 | 8.0 | 0.00 | 0.00 | 0.00 | 74 | 1019.9 |
| 20260504033903 | 15 | 292 | 1.6 | 8.0 | 0.00 | 0.00 | 0.00 | 74 | 1019.8 |
| 20260504033803 | 15 | 293 | 1.6 | 4.8 | 0.00 | 0.00 | 0.00 | 74 | 1019.9 |
| 20260504033703 | 15 | 292 | 1.6 | 4.8 | 0.00 | 0.00 | 0.00 | 74 | 1019.8 |
| 20260504033603 | 15 | 292 | 1.6 | 4.8 | 0.00 | 0.00 | 0.00 | 74 | 1019.8 |
| 20260504033504 | 15 | 292 | 1.6 | 4.8 | 0.00 | 0.00 | 0.00 | 74 | 1019.8 |
| 20260504033403 | 15 | 295 | 1.6 | 4.8 | 0.00 | 0.00 | 0.00 | 74 | 1019.8 |
| 20260504033303 | 15 | 295 | 1.6 | 4.8 | 0.00 | 0.00 | 0.00 | 74 | 1019.8 |
| 20260504033203 | 15 | 296 | 0.0 | 4.8 | 0.00 | 0.00 | 0.00 | 74 | 1019.8 |
| 20260504033103 | 15 | 296 | 0.0 | 4.8 | 0.00 | 0.00 | 0.00 | 74 | 1019.7 |
| 20260504033003 | 15 | 298 | 0.0 | 4.8 | 0.00 | 0.00 | 0.00 | 74 | 1019.8 |
| 20260504032903 | 15 | 299 | 0.0 | 4.8 | 0.00 | 0.00 | 0.00 | 74 | 1019.8 |
| 20260504032803 | 15 | 300 | 0.0 | 4.8 | 0.00 | 0.00 | 0.00 | 74 | 1019.8 |
| 20260504032703 | 15 | 301 | 0.0 | 6.4 | 0.00 | 0.00 | 0.00 | 74 | 1019.7 |
| 20260504032603 | 15 | 304 | 0.0 | 6.4 | 0.00 | 0.00 | 0.00 | 74 | 1019.7 |
| 20260504032503 | 14 | 303 | 0.0 | 6.4 | 0.00 | 0.00 | 0.00 | 74 | 1019.7 |
| 20260504032403 | 14 | 300 | 0.0 | 6.4 | 0.00 | 0.00 | 0.00 | 74 | 1019.7 |
| 20260504032304 | 14 | 300 | 0.0 | 6.4 | 0.00 | 0.00 | 0.00 | 74 | 1019.8 |
| 20260504032203 | 14 | 300 | 0.0 | 6.4 | 0.00 | 0.00 | 0.00 | 73 | 1019.7 |
| 20260504032103 | 14 | 300 | 0.0 | 6.4 | 0.00 | 0.00 | 0.00 | 73 | 1019.7 |
| 20260504032003 | 14 | 299 | 0.0 | 6.4 | 0.00 | 0.00 | 0.00 | 73 | 1019.7 |
| 20260504031903 | 14 | 298 | 0.0 | 6.4 | 0.00 | 0.00 | 0.00 | 73 | 1019.7 |
| 20260504031803 | 14 | 298 | 0.0 | 6.4 | 0.00 | 0.00 | 0.00 | 73 | 1019.8 |
| 20260504031703 | 14 | 295 | 0.0 | 6.4 | 0.00 | 0.00 | 0.00 | 72 | 1019.7 |
| 20260504031603 | 14 | 295 | 0.0 | 6.4 | 0.00 | 0.00 | 0.00 | 72 | 1019.7 |
| 20260504031503 | 14 | 292 | 0.0 | 4.8 | 0.00 | 0.00 | 0.00 | 71 | 1019.7 |
| 20260504031403 | 14 | 292 | 0.0 | 4.8 | 0.00 | 0.00 | 0.00 | 71 | 1019.7 |
| 20260504031303 | 14 | 292 | 0.0 | 4.8 | 0.00 | 0.00 | 0.00 | 71 | 1019.7 |
| 20260504031203 | 14 | 292 | 0.0 | 4.8 | 0.00 | 0.00 | 0.00 | 71 | 1019.7 |
| 20260504031103 | 14 | 292 | 0.0 | 4.8 | 0.00 | 0.00 | 0.00 | 70 | 1019.8 |
| 20260504031003 | 14 | 292 | 0.0 | 4.8 | 0.00 | 0.00 | 0.00 | 70 | 1019.8 |
| 20260504030903 | 14 | 292 | 0.0 | 4.8 | 0.00 | 0.00 | 0.00 | 70 | 1019.8 |
| 20260504030803 | 14 | 292 | 0.0 | 4.8 | 0.00 | 0.00 | 0.00 | 69 | 1019.7 |
| 20260504030703 | 13 | 292 | 0.0 | 4.8 | 0.00 | 0.00 | 0.00 | 69 | 1019.7 |
| 20260504030603 | 13 | 0 | 0.0 | 0.0 | 0.00 | 0.00 | 0.00 | 69 | 1019.7 |
| 20260504030503 | 13 | 0 | 0.0 | 0.0 | 0.00 | 0.00 | 0.00 | 68 | 1019.8 |
| 20260504030403 | 13 | 0 | 0.0 | 0.0 | 0.00 | 0.00 | 0.00 | 68 | 1019.8 |
| 20260504030303 | 13 | 0 | 0.0 | 0.0 | 0.00 | 0.00 | 0.00 | 68 | 1019.8 |
| 20260504030203 | 13 | 0 | 0.0 | 0.0 | 0.00 | 0.00 | 0.00 | 68 | 1019.7 |
| 20260504030003 | 13 | 0 | 0.0 | 0.0 | 0.00 | 0.00 | 0.00 | 68 | 1019.8 |
| 20260504025903 | 13 | 0 | 0.0 | 0.0 | 0.00 | 0.00 | 0.00 | 68 | 1019.8 |
| 20260504025803 | 13 | 0 | 0.0 | 0.0 | 0.00 | 0.00 | 0.00 | 68 | 1019.7 |
| 20260504025703 | 13 | 0 | 0.0 | 0.0 | 0.00 | 0.00 | 0.00 | 68 | 1019.7 |
| 20260504025603 | 13 | 0 | 0.0 | 0.0 | 0.00 | 0.00 | 0.00 | 68 | 1019.7 |
| 20260504025503 | 14 | 0 | 0.0 | 0.0 | 0.00 | 0.00 | 0.00 | 68 | 1019.8 |
| 20260504025403 | 13 | 0 | 0.0 | 0.0 | 0.00 | 0.00 | 0.00 | 68 | 1019.8 |
| 20260504025304 | 14 | 0 | 0.0 | 0.0 | 0.00 | 0.00 | 0.00 | 68 | 1019.9 |
| 20260504025203 | 14 | 0 | 0.0 | 0.0 | 0.00 | 0.00 | 0.00 | 68 | 1020.0 |
| 20260504025103 | 14 | 0 | 0.0 | 0.0 | 0.00 | 0.00 | 0.00 | 68 | 1020.0 |
| 20260504025003 | 14 | 0 | 0.0 | 0.0 | 0.00 | 0.00 | 0.00 | 68 | 1020.1 |
| 20260504024904 | 14 | 0 | 0.0 | 0.0 | 0.00 | 0.00 | 0.00 | 68 | 1020.0 |
| 20260504024803 | 14 | 0 | 0.0 | 0.0 | 0.00 | 0.00 | 0.00 | 68 | 1020.0 |
| 20260504024703 | 14 | 0 | 0.0 | 0.0 | 0.00 | 0.00 | 0.00 | 68 | 1020.1 |
| 20260504024503 | 14 | 0 | 0.0 | 0.0 | 0.00 | 0.00 | 0.00 | 68 | 1020.1 |
| 20260504024403 | 14 | 0 | 0.0 | 0.0 | 0.00 | 0.00 | 0.00 | 68 | 1020.1 |
| 20260504024303 | 14 | 0 | 0.0 | 0.0 | 0.00 | 0.00 | 0.00 | 68 | 1020.0 |
| 20260504024203 | 14 | 0 | 0.0 | 0.0 | 0.00 | 0.00 | 0.00 | 68 | 1020.0 |
| 20260504024103 | 14 | 292 | 0.0 | 1.6 | 0.00 | 0.00 | 0.00 | 69 | 1020.1 |
| 20260504024003 | 14 | 292 | 0.0 | 3.2 | 0.00 | 0.00 | 0.00 | 68 | 1020.1 |
| 20260504023903 | 14 | 292 | 0.0 | 3.2 | 0.00 | 0.00 | 0.00 | 68 | 1020.0 |
| 20260504023803 | 14 | 292 | 0.0 | 3.2 | 0.00 | 0.00 | 0.00 | 69 | 1020.1 |
| 20260504023703 | 14 | 292 | 0.0 | 3.2 | 0.00 | 0.00 | 0.00 | 69 | 1020.2 |
| 20260504023603 | 14 | 292 | 0.0 | 3.2 | 0.00 | 0.00 | 0.00 | 69 | 1020.1 |
| 20260504023503 | 14 | 292 | 0.0 | 3.2 | 0.00 | 0.00 | 0.00 | 69 | 1020.1 |
| 20260504023403 | 14 | 292 | 0.0 | 3.2 | 0.00 | 0.00 | 0.00 | 69 | 1020.0 |
| 20260504023303 | 14 | 292 | 0.0 | 3.2 | 0.00 | 0.00 | 0.00 | 69 | 1020.0 |
| 20260504023203 | 14 | 292 | 0.0 | 3.2 | 0.00 | 0.00 | 0.00 | 69 | 1020.0 |
| 20260504023103 | 14 | 292 | 0.0 | 3.2 | 0.00 | 0.00 | 0.00 | 69 | 1020.1 |
| 20260504023003 | 14 | 292 | 0.0 | 3.2 | 0.00 | 0.00 | 0.00 | 69 | 1020.1 |
| 20260504022903 | 14 | 292 | 0.0 | 3.2 | 0.00 | 0.00 | 0.00 | 69 | 1020.2 |
| 20260504022803 | 14 | 292 | 0.0 | 3.2 | 0.00 | 0.00 | 0.00 | 69 | 1020.1 |
| 20260504022703 | 14 | 292 | 0.0 | 3.2 | 0.00 | 0.00 | 0.00 | 69 | 1020.3 |
| 20260504022603 | 14 | 0 | 0.0 | 0.0 | 0.00 | 0.00 | 0.00 | 69 | 1020.2 |
| 20260504022503 | 14 | 0 | 0.0 | 0.0 | 0.00 | 0.00 | 0.00 | 69 | 1020.1 |
| 20260504022403 | 14 | 0 | 0.0 | 0.0 | 0.00 | 0.00 | 0.00 | 69 | 1020.1 |
| 20260504022304 | 14 | 0 | 0.0 | 0.0 | 0.00 | 0.00 | 0.00 | 70 | 1020.1 |
| 20260504022203 | 14 | 0 | 0.0 | 0.0 | 0.00 | 0.00 | 0.00 | 70 | 1020.2 |
| 20260504022103 | 14 | 0 | 0.0 | 0.0 | 0.00 | 0.00 | 0.00 | 70 | 1020.1 |
| 20260504022003 | 14 | 292 | 0.0 | 1.6 | 0.00 | 0.00 | 0.00 | 70 | 1020.1 |
| 20260504021903 | 14 | 292 | 0.0 | 3.2 | 0.00 | 0.00 | 0.00 | 70 | 1020.1 |
| 20260504021803 | 14 | 292 | 0.0 | 3.2 | 0.00 | 0.00 | 0.00 | 70 | 1020.2 |
| 20260504021703 | 14 | 292 | 0.0 | 3.2 | 0.00 | 0.00 | 0.00 | 70 | 1020.3 |
| 20260504021603 | 14 | 292 | 0.0 | 3.2 | 0.00 | 0.00 | 0.00 | 70 | 1020.2 |
| 20260504021503 | 14 | 292 | 0.0 | 3.2 | 0.00 | 0.00 | 0.00 | 70 | 1020.2 |
| 20260504021403 | 14 | 292 | 0.0 | 3.2 | 0.00 | 0.00 | 0.00 | 70 | 1020.2 |
| 20260504021303 | 14 | 292 | 0.0 | 3.2 | 0.00 | 0.00 | 0.00 | 71 | 1020.2 |
| 20260504021203 | 14 | 292 | 0.0 | 3.2 | 0.00 | 0.00 | 0.00 | 71 | 1020.2 |
| 20260504021103 | 14 | 292 | 0.0 | 3.2 | 0.00 | 0.00 | 0.00 | 71 | 1020.3 |
| 20260504021003 | 14 | 292 | 0.0 | 3.2 | 0.00 | 0.00 | 0.00 | 71 | 1020.3 |
| 20260504020903 | 14 | 292 | 0.0 | 3.2 | 0.00 | 0.00 | 0.00 | 71 | 1020.2 |
| 20260504020803 | 14 | 292 | 0.0 | 1.6 | 0.00 | 0.00 | 0.00 | 71 | 1020.3 |
| 20260504020704 | 14 | 292 | 0.0 | 1.6 | 0.00 | 0.00 | 0.00 | 71 | 1020.3 |
| 20260504020604 | 14 | 292 | 0.0 | 1.6 | 0.00 | 0.00 | 0.00 | 71 | 1020.2 |
| 20260504020504 | 14 | 292 | 0.0 | 1.6 | 0.00 | 0.00 | 0.00 | 72 | 1020.2 |
| 20260504020404 | 14 | 292 | 0.0 | 3.2 | 0.00 | 0.00 | 0.00 | 72 | 1020.2 |
| 20260504020304 | 14 | 292 | 0.0 | 3.2 | 0.00 | 0.00 | 0.00 | 72 | 1020.2 |
| 20260504020204 | 14 | 292 | 0.0 | 3.2 | 0.00 | 0.00 | 0.00 | 72 | 1020.1 |
| 20260504020104 | 14 | 292 | 0.0 | 3.2 | 0.00 | 0.00 | 0.00 | 72 | 1020.2 |
| 20260504020004 | 14 | 292 | 0.0 | 3.2 | 0.00 | 0.00 | 0.00 | 72 | 1020.2 |
| 20260504015904 | 14 | 292 | 0.0 | 3.2 | 0.00 | 0.00 | 0.00 | 72 | 1020.2 |
| 20260504015804 | 14 | 292 | 0.0 | 3.2 | 0.00 | 0.00 | 0.00 | 72 | 1020.2 |
| 20260504015704 | 14 | 292 | 0.0 | 3.2 | 0.00 | 0.00 | 0.00 | 72 | 1020.1 |
| 20260504015604 | 14 | 292 | 0.0 | 3.2 | 0.00 | 0.00 | 0.00 | 72 | 1020.2 |
| 20260504015504 | 15 | 292 | 0.0 | 3.2 | 0.00 | 0.00 | 0.00 | 72 | 1020.1 |
| 20260504015404 | 15 | 292 | 0.0 | 3.2 | 0.00 | 0.00 | 0.00 | 72 | 1020.2 |
| 20260504015304 | 15 | 292 | 0.0 | 3.2 | 0.00 | 0.00 | 0.00 | 72 | 1020.2 |
| 20260504015204 | 15 | 292 | 0.0 | 3.2 | 0.00 | 0.00 | 0.00 | 73 | 1020.1 |
| 20260504015104 | 15 | 292 | 0.0 | 3.2 | 0.00 | 0.00 | 0.00 | 73 | 1020.1 |
| 20260504015004 | 15 | 292 | 0.0 | 3.2 | 0.00 | 0.00 | 0.00 | 73 | 1020.1 |
| 20260504014904 | 15 | 292 | 0.0 | 3.2 | 0.00 | 0.00 | 0.00 | 73 | 1020.2 |
| 20260504014804 | 15 | 292 | 0.0 | 3.2 | 0.00 | 0.00 | 0.00 | 73 | 1020.1 |
| 20260504014704 | 15 | 292 | 0.0 | 3.2 | 0.00 | 0.00 | 0.00 | 73 | 1020.1 |
| 20260504014604 | 15 | 292 | 0.0 | 3.2 | 0.00 | 0.00 | 0.00 | 73 | 1020.1 |
| 20260504014504 | 15 | 292 | 0.0 | 3.2 | 0.00 | 0.00 | 0.00 | 73 | 1020.1 |
| 20260504014404 | 15 | 292 | 0.0 | 3.2 | 0.00 | 0.00 | 0.00 | 74 | 1020.1 |
| 20260504014304 | 15 | 292 | 0.0 | 3.2 | 0.00 | 0.00 | 0.00 | 74 | 1020.0 |
| 20260504014204 | 15 | 292 | 0.0 | 3.2 | 0.00 | 0.00 | 0.00 | 74 | 1020.1 |
| 20260504014104 | 15 | 292 | 0.0 | 3.2 | 0.00 | 0.00 | 0.00 | 74 | 1020.1 |
| 20260504014004 | 15 | 292 | 0.0 | 1.6 | 0.00 | 0.00 | 0.00 | 74 | 1020.1 |
| 20260504013904 | 15 | 0 | 0.0 | 0.0 | 0.00 | 0.00 | 0.00 | 74 | 1020.1 |
| 20260504013804 | 15 | 0 | 0.0 | 0.0 | 0.00 | 0.00 | 0.00 | 74 | 1020.1 |
| 20260504013704 | 15 | 0 | 0.0 | 0.0 | 0.00 | 0.00 | 0.00 | 74 | 1020.1 |
| 20260504013604 | 15 | 0 | 0.0 | 0.0 | 0.00 | 0.00 | 0.00 | 74 | 1020.1 |
| 20260504013404 | 15 | 0 | 0.0 | 0.0 | 0.00 | 0.00 | 0.00 | 75 | 1020.2 |
| 20260504013304 | 15 | 0 | 0.0 | 0.0 | 0.00 | 0.00 | 0.00 | 75 | 1020.1 |
| 20260504013204 | 15 | 0 | 0.0 | 0.0 | 0.00 | 0.00 | 0.00 | 75 | 1020.2 |
| 20260504013104 | 15 | 0 | 0.0 | 0.0 | 0.00 | 0.00 | 0.00 | 75 | 1020.2 |
| 20260504013004 | 15 | 0 | 0.0 | 0.0 | 0.00 | 0.00 | 0.00 | 75 | 1020.2 |
| 20260504012904 | 15 | 0 | 0.0 | 0.0 | 0.00 | 0.00 | 0.00 | 75 | 1020.2 |
| 20260504012804 | 15 | 0 | 0.0 | 0.0 | 0.00 | 0.00 | 0.00 | 75 | 1020.2 |
| 20260504012704 | 15 | 0 | 0.0 | 0.0 | 0.00 | 0.00 | 0.00 | 75 | 1020.2 |
| 20260504012604 | 15 | 0 | 0.0 | 0.0 | 0.00 | 0.00 | 0.00 | 75 | 1020.2 |
| 20260504012504 | 15 | 0 | 0.0 | 0.0 | 0.00 | 0.00 | 0.00 | 75 | 1020.2 |
| 20260504012404 | 15 | 0 | 0.0 | 0.0 | 0.00 | 0.00 | 0.00 | 75 | 1020.3 |
| 20260504012304 | 15 | 0 | 0.0 | 0.0 | 0.00 | 0.00 | 0.00 | 75 | 1020.3 |
| 20260504012204 | 15 | 0 | 0.0 | 0.0 | 0.00 | 0.00 | 0.00 | 75 | 1020.2 |
| 20260504012104 | 15 | 0 | 0.0 | 0.0 | 0.00 | 0.00 | 0.00 | 75 | 1020.1 |
| 20260504012004 | 15 | 0 | 0.0 | 0.0 | 0.00 | 0.00 | 0.00 | 75 | 1020.2 |
| 20260504011904 | 15 | 0 | 0.0 | 0.0 | 0.00 | 0.00 | 0.00 | 75 | 1020.2 |
| 20260504011804 | 15 | 0 | 0.0 | 0.0 | 0.00 | 0.00 | 0.00 | 75 | 1020.2 |
| 20260504011703 | 15 | 0 | 0.0 | 0.0 | 0.00 | 0.00 | 0.00 | 75 | 1020.1 |
| 20260504011604 | 15 | 0 | 0.0 | 0.0 | 0.00 | 0.00 | 0.00 | 75 | 1020.1 |
| 20260504011504 | 15 | 0 | 0.0 | 0.0 | 0.00 | 0.00 | 0.00 | 75 | 1020.1 |
| 20260504011404 | 15 | 0 | 0.0 | 0.0 | 0.00 | 0.00 | 0.00 | 75 | 1020.1 |
| 20260504011304 | 15 | 0 | 0.0 | 0.0 | 0.00 | 0.00 | 0.00 | 75 | 1020.1 |
| 20260504011203 | 15 | 0 | 0.0 | 0.0 | 0.00 | 0.00 | 0.00 | 75 | 1020.2 |
| 20260504011103 | 15 | 0 | 0.0 | 0.0 | 0.00 | 0.00 | 0.00 | 75 | 1020.2 |
| 20260504011003 | 15 | 0 | 0.0 | 0.0 | 0.00 | 0.00 | 0.00 | 75 | 1020.2 |
| 20260504010903 | 15 | 0 | 0.0 | 0.0 | 0.00 | 0.00 | 0.00 | 75 | 1020.1 |
| 20260504010803 | 15 | 0 | 0.0 | 0.0 | 0.00 | 0.00 | 0.00 | 75 | 1020.2 |
| 20260504010703 | 15 | 0 | 0.0 | 0.0 | 0.00 | 0.00 | 0.00 | 75 | 1020.1 |
| 20260504010603 | 15 | 292 | 0.0 | 3.2 | 0.00 | 0.00 | 0.00 | 75 | 1020.2 |
| 20260504010503 | 15 | 292 | 0.0 | 3.2 | 0.00 | 0.00 | 0.00 | 75 | 1020.2 |
| 20260504010404 | 15 | 292 | 0.0 | 3.2 | 0.00 | 0.00 | 0.00 | 75 | 1020.2 |
| 20260504010303 | 15 | 292 | 0.0 | 3.2 | 0.00 | 0.00 | 0.00 | 75 | 1020.1 |
| 20260504010203 | 15 | 292 | 0.0 | 3.2 | 0.00 | 0.00 | 0.00 | 75 | 1020.2 |
| 20260504010004 | 15 | 292 | 0.0 | 3.2 | 0.00 | 0.00 | 0.00 | 75 | 1020.1 |
| 20260504005903 | 15 | 292 | 0.0 | 3.2 | 0.00 | 0.00 | 0.00 | 75 | 1020.2 |
| 20260504005804 | 15 | 292 | 0.0 | 3.2 | 0.00 | 0.00 | 0.00 | 75 | 1020.2 |
| 20260504005703 | 15 | 292 | 0.0 | 3.2 | 0.00 | 0.00 | 0.00 | 75 | 1020.1 |
| 20260504005603 | 15 | 292 | 0.0 | 3.2 | 0.00 | 0.00 | 0.00 | 75 | 1020.2 |
| 20260504005503 | 15 | 292 | 0.0 | 3.2 | 0.00 | 0.00 | 0.00 | 75 | 1020.3 |
| 20260504005304 | 15 | 292 | 0.0 | 3.2 | 0.00 | 0.00 | 0.00 | 75 | 1020.3 |
| 20260504005104 | 15 | 292 | 0.0 | 4.8 | 0.00 | 0.00 | 0.00 | 75 | 1020.2 |
| 20260504005004 | 15 | 292 | 0.0 | 4.8 | 0.00 | 0.00 | 0.00 | 75 | 1020.2 |
| 20260504004903 | 15 | 294 | 0.0 | 4.8 | 0.00 | 0.00 | 0.00 | 75 | 1020.3 |
| 20260504004803 | 15 | 296 | 0.0 | 6.4 | 0.00 | 0.00 | 0.00 | 75 | 1020.3 |
| 20260504004703 | 15 | 295 | 0.0 | 8.0 | 0.00 | 0.00 | 0.00 | 75 | 1020.2 |
| 20260504004603 | 15 | 295 | 0.0 | 8.0 | 0.00 | 0.00 | 0.00 | 76 | 1020.2 |
| 20260504004503 | 15 | 295 | 1.6 | 8.0 | 0.00 | 0.00 | 0.00 | 75 | 1020.3 |
| 20260504004403 | 15 | 296 | 1.6 | 8.0 | 0.00 | 0.00 | 0.00 | 76 | 1020.2 |
| 20260504004303 | 15 | 295 | 1.6 | 8.0 | 0.00 | 0.00 | 0.00 | 76 | 1020.3 |
| 20260504004203 | 15 | 295 | 1.6 | 9.7 | 0.00 | 0.00 | 0.00 | 76 | 1020.2 |
| 20260504004103 | 15 | 295 | 1.6 | 9.7 | 0.00 | 0.00 | 0.00 | 76 | 1020.1 |
| 20260504004003 | 15 | 294 | 1.6 | 9.7 | 0.00 | 0.00 | 0.00 | 76 | 1020.1 |
| 20260504003903 | 15 | 294 | 1.6 | 9.7 | 0.00 | 0.00 | 0.00 | 76 | 1020.2 |
| 20260504003803 | 15 | 293 | 1.6 | 9.7 | 0.00 | 0.00 | 0.00 | 76 | 1020.3 |
| 20260504003703 | 15 | 293 | 1.6 | 9.7 | 0.00 | 0.00 | 0.00 | 76 | 1020.2 |
| 20260504003603 | 15 | 293 | 1.6 | 9.7 | 0.00 | 0.00 | 0.00 | 76 | 1020.1 |
| 20260504003503 | 15 | 293 | 1.6 | 9.7 | 0.00 | 0.00 | 0.00 | 76 | 1020.3 |
| 20260504003403 | 15 | 293 | 1.6 | 9.7 | 0.00 | 0.00 | 0.00 | 76 | 1020.2 |
| 20260504003303 | 15 | 293 | 1.6 | 9.7 | 0.00 | 0.00 | 0.00 | 76 | 1020.2 |
| 20260504003203 | 15 | 293 | 1.6 | 8.0 | 0.00 | 0.00 | 0.00 | 77 | 1020.1 |
| 20260504003103 | 15 | 293 | 1.6 | 8.0 | 0.00 | 0.00 | 0.00 | 77 | 1020.1 |
| 20260504003003 | 15 | 292 | 1.6 | 8.0 | 0.00 | 0.00 | 0.00 | 77 | 1020.1 |
| 20260504002903 | 15 | 292 | 1.6 | 8.0 | 0.00 | 0.00 | 0.00 | 77 | 1020.1 |
| 20260504002803 | 15 | 292 | 0.0 | 8.0 | 0.00 | 0.00 | 0.00 | 77 | 1020.2 |
| 20260504002703 | 15 | 292 | 0.0 | 4.8 | 0.00 | 0.00 | 0.00 | 77 | 1020.2 |
| 20260504002603 | 15 | 292 | 1.6 | 4.8 | 0.00 | 0.00 | 0.00 | 77 | 1020.1 |
| 20260504002503 | 15 | 292 | 0.0 | 4.8 | 0.00 | 0.00 | 0.00 | 77 | 1020.1 |
| 20260504002406 | 15 | 290 | 0.0 | 4.8 | 0.00 | 0.00 | 0.00 | 77 | 1020.1 |
| 20260504002304 | 15 | 290 | 0.0 | 4.8 | 0.00 | 0.00 | 0.00 | 77 | 1020.1 |
| 20260504002203 | 15 | 290 | 0.0 | 4.8 | 0.00 | 0.00 | 0.00 | 77 | 1020.1 |
| 20260504002003 | 15 | 292 | 0.0 | 4.8 | 0.00 | 0.00 | 0.00 | 77 | 1020.0 |
| 20260504001903 | 15 | 292 | 0.0 | 4.8 | 0.00 | 0.00 | 0.00 | 77 | 1020.1 |
| 20260504001803 | 15 | 292 | 0.0 | 4.8 | 0.00 | 0.00 | 0.00 | 77 | 1020.1 |
| 20260504001703 | 15 | 292 | 0.0 | 3.2 | 0.00 | 0.00 | 0.00 | 77 | 1020.1 |
| 20260504001603 | 15 | 292 | 0.0 | 3.2 | 0.00 | 0.00 | 0.00 | 77 | 1020.1 |
| 20260504001503 | 15 | 292 | 0.0 | 3.2 | 0.00 | 0.00 | 0.00 | 77 | 1020.1 |
| 20260504001403 | 15 | 292 | 0.0 | 3.2 | 0.00 | 0.00 | 0.00 | 77 | 1020.0 |
| 20260504001303 | 15 | 292 | 0.0 | 3.2 | 0.00 | 0.00 | 0.00 | 77 | 1020.0 |
| 20260504001203 | 15 | 292 | 0.0 | 6.4 | 0.00 | 0.00 | 0.00 | 77 | 1020.0 |
| 20260504001103 | 15 | 292 | 0.0 | 6.4 | 0.00 | 0.00 | 0.00 | 77 | 1020.0 |
| 20260504001003 | 15 | 292 | 0.0 | 6.4 | 0.00 | 0.00 | 0.00 | 77 | 1020.0 |
| 20260504000903 | 15 | 292 | 0.0 | 6.4 | 0.00 | 0.00 | 0.00 | 77 | 1020.1 |
| 20260504000803 | 15 | 292 | 0.0 | 6.4 | 0.00 | 0.00 | 0.00 | 78 | 1020.2 |
| 20260504000703 | 15 | 292 | 0.0 | 6.4 | 0.00 | 0.00 | 0.00 | 78 | 1020.2 |
| 20260504000603 | 15 | 292 | 0.0 | 6.4 | 0.00 | 0.00 | 0.00 | 77 | 1020.2 |
| 20260504000503 | 15 | 292 | 0.0 | 6.4 | 0.00 | 0.00 | 0.00 | 77 | 1020.2 |
| 20260504000403 | 15 | 293 | 0.0 | 6.4 | 0.00 | 0.00 | 0.00 | 77 | 1020.3 |
| 20260504000303 | 15 | 293 | 0.0 | 6.4 | 0.00 | 0.00 | 0.00 | 77 | 1020.3 |
| 20260504000204 | 15 | 293 | 0.0 | 4.8 | 0.00 | 0.00 | 0.00 | 77 | 1020.2 |
| 20260504000003 | 15 | 293 | 0.0 | 4.8 | 0.00 | 0.00 | 0.00 | 77 | 1020.3 |
| 20260503235903 | 15 | 293 | 0.0 | 4.8 | 0.00 | 0.00 | 0.00 | 77 | 1020.2 |
| 20260503235803 | 15 | 296 | 0.0 | 4.8 | 0.00 | 0.00 | 0.00 | 77 | 1020.4 |
| 20260503235703 | 15 | 300 | 0.0 | 3.2 | 0.00 | 0.00 | 0.00 | 77 | 1020.3 |
| 20260503235603 | 15 | 300 | 0.0 | 3.2 | 0.00 | 0.00 | 0.00 | 77 | 1020.3 |
| 20260503235503 | 15 | 300 | 1.6 | 3.2 | 0.00 | 0.00 | 0.00 | 77 | 1020.3 |
| 20260503235403 | 15 | 299 | 1.6 | 3.2 | 0.00 | 0.00 | 0.00 | 78 | 1020.4 |
| 20260503235304 | 15 | 299 | 1.6 | 3.2 | 0.00 | 0.00 | 0.00 | 77 | 1020.4 |
| 20260503235203 | 15 | 298 | 1.6 | 6.4 | 0.00 | 0.00 | 0.00 | 77 | 1020.3 |
| 20260503235103 | 15 | 299 | 1.6 | 6.4 | 0.00 | 0.00 | 0.00 | 77 | 1020.3 |
| 20260503235003 | 15 | 302 | 1.6 | 6.4 | 0.00 | 0.00 | 0.00 | 77 | 1020.4 |
| 20260503234903 | 15 | 300 | 1.6 | 6.4 | 0.00 | 0.00 | 0.00 | 77 | 1020.4 |
| 20260503234803 | 15 | 298 | 1.6 | 6.4 | 0.00 | 0.00 | 0.00 | 77 | 1020.3 |
| 20260503234703 | 15 | 296 | 1.6 | 6.4 | 0.00 | 0.00 | 0.00 | 77 | 1020.3 |
| 20260503234603 | 15 | 296 | 1.6 | 6.4 | 0.00 | 0.00 | 0.00 | 77 | 1020.4 |
| 20260503234503 | 15 | 295 | 1.6 | 6.4 | 0.00 | 0.00 | 0.00 | 77 | 1020.3 |
| 20260503234403 | 15 | 295 | 0.0 | 6.4 | 0.00 | 0.00 | 0.00 | 77 | 1020.4 |
| 20260503234303 | 15 | 295 | 1.6 | 6.4 | 0.00 | 0.00 | 0.00 | 77 | 1020.4 |
| 20260503234203 | 15 | 296 | 0.0 | 6.4 | 0.00 | 0.00 | 0.00 | 77 | 1020.3 |
| 20260503234103 | 15 | 297 | 0.0 | 4.8 | 0.00 | 0.00 | 0.00 | 77 | 1020.4 |
| 20260503234003 | 15 | 292 | 0.0 | 4.8 | 0.00 | 0.00 | 0.00 | 77 | 1020.4 |
| 20260503233903 | 15 | 292 | 0.0 | 1.6 | 0.00 | 0.00 | 0.00 | 77 | 1020.4 |
| 20260503233803 | 15 | 292 | 0.0 | 1.6 | 0.00 | 0.00 | 0.00 | 77 | 1020.4 |
| 20260503233703 | 15 | 292 | 0.0 | 1.6 | 0.00 | 0.00 | 0.00 | 77 | 1020.4 |
| 20260503233603 | 15 | 292 | 0.0 | 1.6 | 0.00 | 0.00 | 0.00 | 77 | 1020.4 |
| 20260503233503 | 15 | 292 | 0.0 | 1.6 | 0.00 | 0.00 | 0.00 | 77 | 1020.5 |
| 20260503233404 | 15 | 292 | 0.0 | 3.2 | 0.00 | 0.00 | 0.00 | 77 | 1020.5 |
| 20260503233304 | 15 | 292 | 0.0 | 3.2 | 0.00 | 0.00 | 0.00 | 77 | 1020.5 |
| 20260503233204 | 15 | 292 | 0.0 | 3.2 | 0.00 | 0.00 | 0.00 | 77 | 1020.5 |
| 20260503233104 | 15 | 292 | 0.0 | 3.2 | 0.00 | 0.00 | 0.00 | 77 | 1020.5 |
| 20260503233004 | 15 | 292 | 0.0 | 3.2 | 0.00 | 0.00 | 0.00 | 77 | 1020.5 |
| 20260503232904 | 15 | 292 | 0.0 | 3.2 | 0.00 | 0.00 | 0.00 | 77 | 1020.5 |
| 20260503232804 | 15 | 292 | 0.0 | 3.2 | 0.00 | 0.00 | 0.00 | 77 | 1020.7 |
| 20260503232704 | 15 | 292 | 0.0 | 3.2 | 0.00 | 0.00 | 0.00 | 77 | 1020.6 |
| 20260503232604 | 15 | 292 | 0.0 | 3.2 | 0.00 | 0.00 | 0.00 | 77 | 1020.6 |
| 20260503232504 | 15 | 292 | 0.0 | 3.2 | 0.00 | 0.00 | 0.00 | 77 | 1020.6 |
| 20260503232404 | 15 | 292 | 0.0 | 3.2 | 0.00 | 0.00 | 0.00 | 77 | 1020.6 |
| 20260503232305 | 15 | 292 | 0.0 | 3.2 | 0.00 | 0.00 | 0.00 | 77 | 1020.6 |
| 20260503232204 | 15 | 292 | 0.0 | 3.2 | 0.00 | 0.00 | 0.00 | 77 | 1020.6 |
| 20260503232104 | 15 | 292 | 0.0 | 3.2 | 0.00 | 0.00 | 0.00 | 77 | 1020.5 |
| 20260503232004 | 15 | 292 | 0.0 | 3.2 | 0.00 | 0.00 | 0.00 | 77 | 1020.6 |
| 20260503231904 | 15 | 292 | 0.0 | 3.2 | 0.00 | 0.00 | 0.00 | 77 | 1020.6 |
| 20260503231804 | 15 | 292 | 0.0 | 3.2 | 0.00 | 0.00 | 0.00 | 77 | 1020.6 |
| 20260503231704 | 15 | 292 | 0.0 | 3.2 | 0.00 | 0.00 | 0.00 | 77 | 1020.6 |
| 20260503231604 | 15 | 292 | 0.0 | 3.2 | 0.00 | 0.00 | 0.00 | 77 | 1020.6 |
| 20260503231504 | 15 | 292 | 1.6 | 3.2 | 0.00 | 0.00 | 0.00 | 77 | 1020.7 |
| 20260503231404 | 15 | 292 | 1.6 | 4.8 | 0.00 | 0.00 | 0.00 | 77 | 1020.6 |
| 20260503231304 | 15 | 292 | 1.6 | 4.8 | 0.00 | 0.00 | 0.00 | 77 | 1020.6 |
| 20260503231204 | 15 | 292 | 1.6 | 6.4 | 0.00 | 0.00 | 0.00 | 77 | 1020.6 |
| 20260503231003 | 15 | 292 | 1.6 | 6.4 | 0.00 | 0.00 | 0.00 | 77 | 1020.5 |
| 20260503230903 | 15 | 292 | 1.6 | 6.4 | 0.00 | 0.00 | 0.00 | 77 | 1020.6 |
| 20260503230803 | 15 | 292 | 1.6 | 6.4 | 0.00 | 0.00 | 0.00 | 77 | 1020.6 |
| 20260503230703 | 15 | 292 | 1.6 | 6.4 | 0.00 | 0.00 | 0.00 | 77 | 1020.6 |
| 20260503230603 | 15 | 292 | 1.6 | 6.4 | 0.00 | 0.00 | 0.00 | 77 | 1020.6 |
| 20260503230503 | 15 | 292 | 1.6 | 6.4 | 0.00 | 0.00 | 0.00 | 77 | 1020.6 |
| 20260503230403 | 15 | 292 | 1.6 | 6.4 | 0.00 | 0.00 | 0.00 | 77 | 1020.7 |
| 20260503230303 | 15 | 292 | 0.0 | 6.4 | 0.00 | 0.00 | 0.00 | 77 | 1020.6 |
| 20260503230203 | 15 | 292 | 0.0 | 6.4 | 0.00 | 0.00 | 0.00 | 76 | 1020.7 |
| 20260503230103 | 15 | 292 | 0.0 | 3.2 | 0.00 | 0.00 | 0.00 | 77 | 1020.7 |
| 20260503230003 | 15 | 292 | 0.0 | 3.2 | 0.00 | 0.00 | 0.00 | 77 | 1020.9 |
| 20260503225903 | 15 | 292 | 0.0 | 3.2 | 0.00 | 0.00 | 0.00 | 77 | 1020.9 |
| 20260503225803 | 15 | 292 | 0.0 | 8.0 | 0.00 | 0.00 | 0.00 | 77 | 1021.0 |
| 20260503225704 | 15 | 292 | 1.6 | 8.0 | 0.00 | 0.00 | 0.00 | 77 | 1020.9 |
| 20260503225603 | 15 | 292 | 1.6 | 8.0 | 0.00 | 0.00 | 0.00 | 77 | 1020.9 |
| 20260503225503 | 15 | 294 | 1.6 | 8.0 | 0.00 | 0.00 | 0.00 | 77 | 1021.0 |
| 20260503225403 | 15 | 294 | 1.6 | 8.0 | 0.00 | 0.00 | 0.00 | 77 | 1020.9 |
| 20260503225304 | 15 | 293 | 1.6 | 8.0 | 0.00 | 0.00 | 0.00 | 77 | 1020.9 |
| 20260503225203 | 15 | 293 | 1.6 | 8.0 | 0.00 | 0.00 | 0.00 | 77 | 1021.0 |
| 20260503225103 | 15 | 294 | 1.6 | 8.0 | 0.00 | 0.00 | 0.00 | 77 | 1021.0 |
| 20260503225003 | 15 | 294 | 1.6 | 8.0 | 0.00 | 0.00 | 0.00 | 77 | 1021.0 |
| 20260503224903 | 15 | 294 | 1.6 | 8.0 | 0.00 | 0.00 | 0.00 | 77 | 1021.1 |
| 20260503224803 | 15 | 294 | 1.6 | 6.4 | 0.00 | 0.00 | 0.00 | 77 | 1021.0 |
| 20260503224703 | 15 | 294 | 1.6 | 6.4 | 0.00 | 0.00 | 0.00 | 77 | 1021.0 |
| 20260503224603 | 15 | 294 | 1.6 | 6.4 | 0.00 | 0.00 | 0.00 | 77 | 1021.1 |
| 20260503224503 | 15 | 293 | 1.6 | 6.4 | 0.00 | 0.00 | 0.00 | 77 | 1021.0 |
| 20260503224403 | 15 | 292 | 1.6 | 6.4 | 0.00 | 0.00 | 0.00 | 76 | 1021.1 |
| 20260503224303 | 15 | 292 | 1.6 | 6.4 | 0.00 | 0.00 | 0.00 | 77 | 1021.0 |
| 20260503224203 | 15 | 293 | 1.6 | 6.4 | 0.00 | 0.00 | 0.00 | 76 | 1021.0 |
| 20260503224103 | 15 | 293 | 1.6 | 6.4 | 0.00 | 0.00 | 0.00 | 76 | 1021.0 |
| 20260503224003 | 15 | 293 | 1.6 | 6.4 | 0.00 | 0.00 | 0.00 | 76 | 1020.9 |
| 20260503223903 | 15 | 293 | 1.6 | 6.4 | 0.00 | 0.00 | 0.00 | 76 | 1021.0 |
| 20260503223803 | 15 | 293 | 1.6 | 6.4 | 0.00 | 0.00 | 0.00 | 76 | 1021.0 |
| 20260503223703 | 15 | 294 | 1.6 | 6.4 | 0.00 | 0.00 | 0.00 | 76 | 1021.0 |
| 20260503223603 | 15 | 294 | 1.6 | 6.4 | 0.00 | 0.00 | 0.00 | 76 | 1021.0 |
| 20260503223503 | 15 | 294 | 0.0 | 6.4 | 0.00 | 0.00 | 0.00 | 76 | 1021.0 |
| 20260503223403 | 15 | 298 | 0.0 | 6.4 | 0.00 | 0.00 | 0.00 | 76 | 1021.0 |
| 20260503223303 | 15 | 301 | 0.0 | 3.2 | 0.00 | 0.00 | 0.00 | 76 | 1021.0 |
| 20260503223203 | 15 | 315 | 0.0 | 3.2 | 0.00 | 0.00 | 0.00 | 76 | 1020.9 |
| 20260503223103 | 15 | 0 | 0.0 | 0.0 | 0.00 | 0.00 | 0.00 | 76 | 1021.0 |
| 20260503223003 | 15 | 0 | 0.0 | 0.0 | 0.00 | 0.00 | 0.00 | 76 | 1021.0 |
| 20260503222903 | 15 | 0 | 0.0 | 0.0 | 0.00 | 0.00 | 0.00 | 76 | 1021.0 |
| 20260503222803 | 15 | 315 | 0.0 | 3.2 | 0.00 | 0.00 | 0.00 | 76 | 1021.0 |
| 20260503222703 | 15 | 315 | 0.0 | 3.2 | 0.00 | 0.00 | 0.00 | 76 | 1021.0 |
| 20260503222603 | 15 | 302 | 0.0 | 3.2 | 0.00 | 0.00 | 0.00 | 76 | 1021.0 |
| 20260503222503 | 15 | 299 | 0.0 | 3.2 | 0.00 | 0.00 | 0.00 | 76 | 1021.0 |
| 20260503222403 | 15 | 299 | 0.0 | 3.2 | 0.00 | 0.00 | 0.00 | 76 | 1021.0 |
| 20260503222304 | 15 | 299 | 0.0 | 3.2 | 0.00 | 0.00 | 0.00 | 76 | 1020.9 |
| 20260503222203 | 15 | 299 | 0.0 | 3.2 | 0.00 | 0.00 | 0.00 | 76 | 1020.8 |
| 20260503222103 | 15 | 299 | 0.0 | 3.2 | 0.00 | 0.00 | 0.00 | 76 | 1020.9 |
| 20260503222003 | 15 | 299 | 0.0 | 3.2 | 0.00 | 0.00 | 0.00 | 76 | 1020.8 |
| 20260503221903 | 15 | 297 | 0.0 | 3.2 | 0.00 | 0.00 | 0.00 | 76 | 1020.8 |
| 20260503221803 | 15 | 294 | 0.0 | 3.2 | 0.00 | 0.00 | 0.00 | 76 | 1020.9 |
| 20260503221703 | 15 | 294 | 0.0 | 3.2 | 0.00 | 0.00 | 0.00 | 76 | 1020.8 |
| 20260503221603 | 15 | 294 | 0.0 | 3.2 | 0.00 | 0.00 | 0.00 | 76 | 1020.9 |
| 20260503221503 | 15 | 292 | 0.0 | 3.2 | 0.00 | 0.00 | 0.00 | 76 | 1020.9 |
| 20260503221403 | 15 | 292 | 0.0 | 3.2 | 0.00 | 0.00 | 0.00 | 76 | 1020.9 |
| 20260503221303 | 15 | 292 | 0.0 | 3.2 | 0.00 | 0.00 | 0.00 | 76 | 1021.0 |
| 20260503221203 | 15 | 292 | 0.0 | 3.2 | 0.00 | 0.00 | 0.00 | 76 | 1021.0 |
| 20260503221103 | 15 | 292 | 0.0 | 3.2 | 0.00 | 0.00 | 0.00 | 76 | 1021.0 |
| 20260503221003 | 15 | 292 | 0.0 | 3.2 | 0.00 | 0.00 | 0.00 | 76 | 1021.1 |
| 20260503220903 | 15 | 292 | 0.0 | 3.2 | 0.00 | 0.00 | 0.00 | 76 | 1021.0 |
| 20260503220803 | 15 | 292 | 0.0 | 3.2 | 0.00 | 0.00 | 0.00 | 76 | 1020.9 |
| 20260503220703 | 15 | 292 | 0.0 | 3.2 | 0.00 | 0.00 | 0.00 | 76 | 1020.9 |
| 20260503220603 | 15 | 292 | 0.0 | 1.6 | 0.00 | 0.00 | 0.00 | 76 | 1020.9 |
| 20260503220503 | 15 | 292 | 0.0 | 1.6 | 0.00 | 0.00 | 0.00 | 76 | 1021.0 |
| 20260503220403 | 15 | 292 | 0.0 | 1.6 | 0.00 | 0.00 | 0.00 | 76 | 1020.8 |
| 20260503220303 | 15 | 0 | 0.0 | 0.0 | 0.00 | 0.00 | 0.00 | 76 | 1020.9 |
| 20260503220203 | 15 | 292 | 0.0 | 1.6 | 0.00 | 0.00 | 0.00 | 76 | 1021.0 |
| 20260503220104 | 15 | 292 | 0.0 | 1.6 | 0.00 | 0.00 | 0.00 | 76 | 1021.0 |
| 20260503220039 | 15 | 292 | 0.0 | 3.2 | 0.00 | 0.00 | 0.00 | 76 | 1021.0 |
| 20260503215904 | 15 | 292 | 0.0 | 3.2 | 0.00 | 0.00 | 0.00 | 76 | 1020.9 |
| 20260503215804 | 15 | 292 | 0.0 | 3.2 | 0.00 | 0.00 | 0.00 | 76 | 1020.9 |
| 20260503215704 | 15 | 292 | 0.0 | 3.2 | 0.00 | 0.00 | 0.00 | 76 | 1020.9 |
| 20260503215604 | 15 | 292 | 0.0 | 3.2 | 0.00 | 0.00 | 0.00 | 76 | 1020.8 |
| 20260503215504 | 15 | 292 | 0.0 | 3.2 | 0.00 | 0.00 | 0.00 | 76 | 1020.9 |
| 20260503215404 | 15 | 292 | 0.0 | 3.2 | 0.00 | 0.00 | 0.00 | 76 | 1020.8 |
| 20260503215304 | 15 | 292 | 0.0 | 3.2 | 0.00 | 0.00 | 0.00 | 76 | 1020.9 |
| 20260503215204 | 15 | 292 | 0.0 | 3.2 | 0.00 | 0.00 | 0.00 | 76 | 1020.9 |
| 20260503215104 | 15 | 292 | 0.0 | 3.2 | 0.00 | 0.00 | 0.00 | 76 | 1020.9 |
| 20260503215004 | 15 | 292 | 0.0 | 1.6 | 0.00 | 0.00 | 0.00 | 75 | 1021.0 |
| 20260503214904 | 15 | 0 | 0.0 | 0.0 | 0.00 | 0.00 | 0.00 | 75 | 1020.9 |
| 20260503214804 | 15 | 0 | 0.0 | 0.0 | 0.00 | 0.00 | 0.00 | 75 | 1020.9 |
| 20260503214704 | 15 | 0 | 0.0 | 0.0 | 0.00 | 0.00 | 0.00 | 75 | 1021.0 |
| 20260503214604 | 15 | 0 | 0.0 | 0.0 | 0.00 | 0.00 | 0.00 | 75 | 1021.0 |
| 20260503214504 | 15 | 0 | 0.0 | 0.0 | 0.00 | 0.00 | 0.00 | 75 | 1021.0 |
| 20260503214404 | 15 | 0 | 0.0 | 0.0 | 0.00 | 0.00 | 0.00 | 75 | 1021.0 |
| 20260503214304 | 15 | 0 | 0.0 | 0.0 | 0.00 | 0.00 | 0.00 | 75 | 1020.9 |
| 20260503214204 | 15 | 0 | 0.0 | 0.0 | 0.00 | 0.00 | 0.00 | 75 | 1020.9 |
| 20260503214104 | 15 | 0 | 0.0 | 0.0 | 0.00 | 0.00 | 0.00 | 76 | 1021.0 |
| 20260503214004 | 15 | 0 | 0.0 | 0.0 | 0.00 | 0.00 | 0.00 | 76 | 1020.9 |
| 20260503213904 | 15 | 0 | 0.0 | 0.0 | 0.00 | 0.00 | 0.00 | 76 | 1021.0 |
| 20260503213804 | 15 | 0 | 0.0 | 0.0 | 0.00 | 0.00 | 0.00 | 76 | 1021.0 |
| 20260503213704 | 15 | 0 | 0.0 | 0.0 | 0.00 | 0.00 | 0.00 | 76 | 1021.0 |
| 20260503213604 | 15 | 0 | 0.0 | 0.0 | 0.00 | 0.00 | 0.00 | 76 | 1021.0 |
| 20260503213504 | 15 | 292 | 0.0 | 3.2 | 0.00 | 0.00 | 0.00 | 76 | 1021.1 |
| 20260503213404 | 15 | 292 | 0.0 | 3.2 | 0.00 | 0.00 | 0.00 | 76 | 1021.0 |
| 20260503213304 | 15 | 292 | 0.0 | 3.2 | 0.00 | 0.00 | 0.00 | 76 | 1021.0 |
| 20260503213204 | 15 | 292 | 0.0 | 3.2 | 0.00 | 0.00 | 0.00 | 76 | 1021.0 |
| 20260503213104 | 15 | 292 | 0.0 | 3.2 | 0.00 | 0.00 | 0.00 | 76 | 1021.0 |
| 20260503213004 | 15 | 292 | 0.0 | 3.2 | 0.00 | 0.00 | 0.00 | 76 | 1021.0 |
| 20260503212904 | 15 | 292 | 0.0 | 3.2 | 0.00 | 0.00 | 0.00 | 76 | 1021.0 |
| 20260503212804 | 15 | 292 | 0.0 | 3.2 | 0.00 | 0.00 | 0.00 | 76 | 1020.9 |
| 20260503212704 | 15 | 292 | 0.0 | 3.2 | 0.00 | 0.00 | 0.00 | 76 | 1020.9 |
| 20260503212604 | 15 | 292 | 0.0 | 3.2 | 0.00 | 0.00 | 0.00 | 76 | 1020.9 |
| 20260503212503 | 15 | 292 | 0.0 | 3.2 | 0.00 | 0.00 | 0.00 | 76 | 1020.9 |
| 20260503212403 | 15 | 292 | 0.0 | 3.2 | 0.00 | 0.00 | 0.00 | 76 | 1020.9 |
| 20260503212305 | 15 | 296 | 0.0 | 4.8 | 0.00 | 0.00 | 0.00 | 76 | 1020.9 |
| 20260503212203 | 15 | 295 | 0.0 | 4.8 | 0.00 | 0.00 | 0.00 | 76 | 1020.9 |
| 20260503212104 | 15 | 295 | 0.0 | 4.8 | 0.00 | 0.00 | 0.00 | 76 | 1020.9 |
| 20260503212004 | 15 | 295 | 0.0 | 4.8 | 0.00 | 0.00 | 0.00 | 76 | 1020.9 |
| 20260503211903 | 15 | 295 | 0.0 | 4.8 | 0.00 | 0.00 | 0.00 | 76 | 1020.9 |
| 20260503211803 | 15 | 293 | 0.0 | 4.8 | 0.00 | 0.00 | 0.00 | 75 | 1020.8 |
| 20260503211703 | 15 | 296 | 0.0 | 4.8 | 0.00 | 0.00 | 0.00 | 75 | 1020.9 |
| 20260503211603 | 15 | 297 | 0.0 | 4.8 | 0.00 | 0.00 | 0.00 | 75 | 1020.8 |
| 20260503211503 | 15 | 296 | 1.6 | 4.8 | 0.00 | 0.00 | 0.00 | 75 | 1020.8 |
| 20260503211403 | 15 | 296 | 1.6 | 4.8 | 0.00 | 0.00 | 0.00 | 75 | 1020.8 |
| 20260503211303 | 15 | 294 | 1.6 | 4.8 | 0.00 | 0.00 | 0.00 | 75 | 1020.8 |
| 20260503211204 | 15 | 294 | 1.6 | 4.8 | 0.00 | 0.00 | 0.00 | 75 | 1020.8 |
| 20260503211103 | 15 | 294 | 1.6 | 4.8 | 0.00 | 0.00 | 0.00 | 75 | 1020.9 |
| 20260503211003 | 16 | 294 | 1.6 | 4.8 | 0.00 | 0.00 | 0.00 | 75 | 1020.9 |
| 20260503210903 | 16 | 294 | 1.6 | 4.8 | 0.00 | 0.00 | 0.00 | 75 | 1020.9 |
| 20260503210803 | 16 | 294 | 1.6 | 4.8 | 0.00 | 0.00 | 0.00 | 75 | 1020.9 |
| 20260503210703 | 16 | 292 | 1.6 | 6.4 | 0.00 | 0.00 | 0.00 | 75 | 1021.1 |
| 20260503210603 | 16 | 292 | 1.6 | 6.4 | 0.00 | 0.00 | 0.00 | 75 | 1021.0 |
| 20260503210503 | 16 | 292 | 1.6 | 6.4 | 0.00 | 0.00 | 0.00 | 75 | 1021.0 |
| 20260503210403 | 16 | 292 | 1.6 | 6.4 | 0.00 | 0.00 | 0.00 | 75 | 1021.1 |
| 20260503210303 | 16 | 292 | 1.6 | 6.4 | 0.00 | 0.00 | 0.00 | 75 | 1021.1 |
| 20260503210203 | 16 | 292 | 1.6 | 6.4 | 0.00 | 0.00 | 0.00 | 75 | 1021.1 |
| 20260503210103 | 16 | 291 | 1.6 | 6.4 | 0.00 | 0.00 | 0.00 | 75 | 1021.0 |
| 20260503210004 | 16 | 291 | 1.6 | 6.4 | 0.00 | 0.00 | 0.00 | 75 | 1021.0 |
| 20260503205904 | 16 | 291 | 1.6 | 6.4 | 0.00 | 0.00 | 0.00 | 75 | 1021.0 |
| 20260503205803 | 16 | 291 | 1.6 | 6.4 | 0.00 | 0.00 | 0.00 | 75 | 1020.9 |
| 20260503205703 | 16 | 291 | 1.6 | 6.4 | 0.00 | 0.00 | 0.00 | 75 | 1021.0 |
| 20260503205603 | 16 | 290 | 1.6 | 6.4 | 0.00 | 0.00 | 0.00 | 75 | 1021.0 |
| 20260503205503 | 16 | 290 | 1.6 | 6.4 | 0.00 | 0.00 | 0.00 | 75 | 1021.1 |
| 20260503205403 | 16 | 290 | 1.6 | 6.4 | 0.00 | 0.00 | 0.00 | 75 | 1021.0 |
| 20260503205304 | 16 | 290 | 1.6 | 6.4 | 0.00 | 0.00 | 0.00 | 75 | 1021.0 |
| 20260503205203 | 16 | 290 | 1.6 | 6.4 | 0.00 | 0.00 | 0.00 | 75 | 1021.0 |
| 20260503205103 | 16 | 292 | 0.0 | 4.8 | 0.00 | 0.00 | 0.00 | 74 | 1020.9 |
| 20260503205003 | 16 | 292 | 0.0 | 4.8 | 0.00 | 0.00 | 0.00 | 74 | 1021.0 |
| 20260503204903 | 16 | 292 | 0.0 | 3.2 | 0.00 | 0.00 | 0.00 | 74 | 1020.9 |
| 20260503204803 | 16 | 292 | 0.0 | 3.2 | 0.00 | 0.00 | 0.00 | 74 | 1020.9 |
| 20260503204703 | 16 | 292 | 0.0 | 3.2 | 0.00 | 0.00 | 0.00 | 74 | 1021.0 |
| 20260503204603 | 16 | 291 | 0.0 | 3.2 | 0.00 | 0.00 | 0.00 | 74 | 1020.9 |
| 20260503204503 | 16 | 290 | 0.0 | 3.2 | 0.00 | 0.00 | 0.00 | 74 | 1020.9 |
| 20260503204403 | 16 | 290 | 0.0 | 4.8 | 0.00 | 0.00 | 0.00 | 74 | 1020.8 |
| 20260503204303 | 16 | 290 | 0.0 | 4.8 | 0.00 | 0.00 | 0.00 | 74 | 1021.0 |
| 20260503204203 | 16 | 295 | 0.0 | 8.0 | 0.00 | 0.00 | 0.00 | 74 | 1021.0 |
| 20260503204103 | 16 | 294 | 1.6 | 8.0 | 0.00 | 0.00 | 0.00 | 74 | 1021.0 |
| 20260503204003 | 16 | 294 | 1.6 | 8.0 | 0.00 | 0.00 | 0.00 | 74 | 1021.0 |
| 20260503203903 | 16 | 294 | 1.6 | 8.0 | 0.00 | 0.00 | 0.00 | 74 | 1021.0 |
| 20260503203803 | 16 | 294 | 1.6 | 8.0 | 0.00 | 0.00 | 0.00 | 74 | 1021.0 |
| 20260503203703 | 16 | 294 | 1.6 | 8.0 | 0.00 | 0.00 | 0.00 | 74 | 1020.9 |
| 20260503203603 | 16 | 294 | 1.6 | 8.0 | 0.00 | 0.00 | 0.00 | 74 | 1020.9 |
| 20260503203503 | 16 | 294 | 1.6 | 8.0 | 0.00 | 0.00 | 0.00 | 74 | 1020.9 |
| 20260503203403 | 16 | 294 | 1.6 | 8.0 | 0.00 | 0.00 | 0.00 | 74 | 1020.9 |
| 20260503203303 | 16 | 294 | 1.6 | 8.0 | 0.00 | 0.00 | 0.00 | 74 | 1020.9 |
| 20260503203203 | 16 | 293 | 1.6 | 6.4 | 0.00 | 0.00 | 0.00 | 74 | 1020.8 |
| 20260503203103 | 16 | 293 | 1.6 | 6.4 | 0.00 | 0.00 | 0.00 | 73 | 1020.9 |
| 20260503203003 | 16 | 294 | 1.6 | 6.4 | 0.00 | 0.00 | 0.00 | 73 | 1020.8 |
| 20260503202903 | 16 | 294 | 1.6 | 6.4 | 0.00 | 0.00 | 0.00 | 74 | 1020.8 |
| 20260503202803 | 16 | 294 | 1.6 | 6.4 | 0.00 | 0.00 | 0.00 | 74 | 1020.8 |
| 20260503202703 | 16 | 294 | 0.0 | 6.4 | 0.00 | 0.00 | 0.00 | 74 | 1020.8 |
| 20260503202603 | 16 | 297 | 0.0 | 6.4 | 0.00 | 0.00 | 0.00 | 74 | 1020.8 |
| 20260503202503 | 16 | 296 | 0.0 | 6.4 | 0.00 | 0.00 | 0.00 | 74 | 1020.7 |
| 20260503202403 | 16 | 292 | 0.0 | 6.4 | 0.00 | 0.00 | 0.00 | 74 | 1020.8 |
| 20260503202304 | 16 | 292 | 0.0 | 6.4 | 0.00 | 0.00 | 0.00 | 73 | 1020.7 |
| 20260503202203 | 16 | 288 | 0.0 | 4.8 | 0.00 | 0.00 | 0.00 | 74 | 1020.7 |
| 20260503202103 | 16 | 288 | 1.6 | 6.4 | 0.00 | 0.00 | 0.00 | 73 | 1020.8 |
| 20260503202003 | 16 | 288 | 1.6 | 6.4 | 0.00 | 0.00 | 0.00 | 73 | 1020.9 |
| 20260503201903 | 16 | 288 | 1.6 | 6.4 | 0.00 | 0.00 | 0.00 | 73 | 1020.9 |
| 20260503201803 | 16 | 288 | 1.6 | 6.4 | 0.00 | 0.00 | 0.00 | 73 | 1020.8 |
| 20260503201703 | 16 | 289 | 1.6 | 6.4 | 0.00 | 0.00 | 0.00 | 73 | 1020.9 |
| 20260503201603 | 16 | 289 | 1.6 | 6.4 | 0.00 | 0.00 | 0.00 | 73 | 1020.9 |
| 20260503201503 | 16 | 289 | 1.6 | 6.4 | 0.00 | 0.00 | 0.00 | 73 | 1021.0 |
| 20260503201403 | 16 | 291 | 1.6 | 6.4 | 0.00 | 0.00 | 0.00 | 73 | 1021.0 |
| 20260503201303 | 16 | 291 | 1.6 | 6.4 | 0.00 | 0.00 | 0.00 | 73 | 1021.0 |
| 20260503201203 | 16 | 291 | 0.0 | 6.4 | 0.00 | 0.00 | 0.00 | 73 | 1020.9 |
| 20260503201103 | 16 | 290 | 0.0 | 4.8 | 0.00 | 0.00 | 0.00 | 73 | 1020.9 |
| 20260503201003 | 16 | 292 | 0.0 | 4.8 | 0.00 | 0.00 | 0.00 | 73 | 1020.9 |
| 20260503200903 | 16 | 292 | 0.0 | 4.8 | 0.00 | 0.00 | 0.00 | 73 | 1020.8 |
| 20260503200803 | 16 | 292 | 0.0 | 4.8 | 0.00 | 0.00 | 0.00 | 73 | 1020.8 |
| 20260503200703 | 16 | 292 | 0.0 | 4.8 | 0.00 | 0.00 | 0.00 | 73 | 1020.9 |
| 20260503200603 | 16 | 292 | 0.0 | 4.8 | 0.00 | 0.00 | 0.00 | 73 | 1020.9 |
| 20260503200503 | 16 | 292 | 0.0 | 4.8 | 0.00 | 0.00 | 0.00 | 72 | 1020.8 |
| 20260503200403 | 16 | 292 | 0.0 | 4.8 | 0.00 | 0.00 | 0.00 | 72 | 1020.8 |
| 20260503200303 | 16 | 292 | 1.6 | 4.8 | 0.00 | 0.00 | 0.00 | 72 | 1020.8 |
| 20260503200203 | 16 | 292 | 1.6 | 4.8 | 0.00 | 0.00 | 0.00 | 72 | 1020.7 |
| 20260503200003 | 16 | 292 | 1.6 | 4.8 | 0.00 | 0.00 | 0.00 | 72 | 1020.7 |
| 20260503195903 | 16 | 292 | 1.6 | 4.8 | 0.00 | 0.00 | 0.00 | 72 | 1020.7 |
| 20260503195803 | 16 | 292 | 0.0 | 4.8 | 0.00 | 0.00 | 0.00 | 72 | 1020.7 |
| 20260503195703 | 16 | 292 | 0.0 | 3.2 | 0.00 | 0.00 | 0.00 | 72 | 1020.8 |
| 20260503195603 | 16 | 292 | 0.0 | 3.2 | 0.00 | 0.00 | 0.00 | 72 | 1020.8 |
| 20260503195503 | 16 | 292 | 0.0 | 4.8 | 0.00 | 0.00 | 0.00 | 72 | 1020.8 |
| 20260503195403 | 16 | 293 | 1.6 | 4.8 | 0.00 | 0.00 | 0.00 | 72 | 1020.8 |
| 20260503195304 | 16 | 293 | 0.0 | 4.8 | 0.00 | 0.00 | 0.00 | 72 | 1020.7 |
| 20260503195203 | 16 | 293 | 0.0 | 4.8 | 0.00 | 0.00 | 0.00 | 71 | 1020.9 |
| 20260503195103 | 16 | 293 | 0.0 | 4.8 | 0.00 | 0.00 | 0.00 | 71 | 1020.9 |
| 20260503195003 | 16 | 293 | 1.6 | 4.8 | 0.00 | 0.00 | 0.00 | 71 | 1020.9 |
| 20260503194903 | 16 | 293 | 1.6 | 4.8 | 0.00 | 0.00 | 0.00 | 71 | 1020.8 |
| 20260503194803 | 16 | 293 | 1.6 | 6.4 | 0.00 | 0.00 | 0.00 | 71 | 1020.8 |
| 20260503194703 | 16 | 293 | 1.6 | 6.4 | 0.00 | 0.00 | 0.00 | 71 | 1020.8 |
| 20260503194603 | 16 | 293 | 1.6 | 6.4 | 0.00 | 0.00 | 0.00 | 71 | 1020.8 |
| 20260503194503 | 16 | 292 | 1.6 | 6.4 | 0.00 | 0.00 | 0.00 | 71 | 1020.9 |
| 20260503194403 | 16 | 292 | 1.6 | 6.4 | 0.00 | 0.00 | 0.00 | 71 | 1020.7 |
| 20260503194303 | 16 | 291 | 1.6 | 6.4 | 0.00 | 0.00 | 0.00 | 71 | 1021.0 |
| 20260503194204 | 16 | 291 | 1.6 | 6.4 | 0.00 | 0.00 | 0.00 | 71 | 1021.0 |
| 20260503194104 | 16 | 291 | 1.6 | 6.4 | 0.00 | 0.00 | 0.00 | 71 | 1021.0 |
| 20260503194004 | 16 | 291 | 1.6 | 6.4 | 0.00 | 0.00 | 0.00 | 71 | 1021.0 |
| 20260503193904 | 16 | 291 | 1.6 | 6.4 | 0.00 | 0.00 | 0.00 | 71 | 1021.0 |
| 20260503193804 | 16 | 291 | 1.6 | 6.4 | 0.00 | 0.00 | 0.00 | 71 | 1021.0 |
| 20260503193704 | 16 | 291 | 1.6 | 6.4 | 0.00 | 0.00 | 0.00 | 71 | 1021.0 |
| 20260503193604 | 16 | 291 | 1.6 | 6.4 | 0.00 | 0.00 | 0.00 | 71 | 1021.1 |
| 20260503193504 | 16 | 292 | 1.6 | 6.4 | 0.00 | 0.00 | 0.00 | 71 | 1021.0 |
| 20260503193404 | 16 | 292 | 1.6 | 6.4 | 0.00 | 0.00 | 0.00 | 71 | 1021.1 |
| 20260503193304 | 16 | 292 | 1.6 | 9.7 | 0.00 | 0.00 | 0.00 | 71 | 1021.0 |
| 20260503193204 | 16 | 293 | 1.6 | 9.7 | 0.00 | 0.00 | 0.00 | 71 | 1021.0 |
| 20260503193104 | 16 | 292 | 1.6 | 9.7 | 0.00 | 0.00 | 0.00 | 71 | 1021.0 |
| 20260503193004 | 16 | 292 | 1.6 | 9.7 | 0.00 | 0.00 | 0.00 | 71 | 1021.0 |
| 20260503192904 | 16 | 292 | 1.6 | 9.7 | 0.00 | 0.00 | 0.00 | 70 | 1021.0 |
| 20260503192804 | 16 | 291 | 1.6 | 9.7 | 0.00 | 0.00 | 0.00 | 70 | 1021.0 |
| 20260503192704 | 16 | 291 | 1.6 | 9.7 | 0.00 | 0.00 | 0.00 | 70 | 1020.9 |
| 20260503192604 | 16 | 291 | 1.6 | 9.7 | 0.00 | 0.00 | 0.00 | 70 | 1020.9 |
| 20260503192504 | 16 | 292 | 1.6 | 9.7 | 0.00 | 0.00 | 0.00 | 70 | 1020.9 |
| 20260503192404 | 16 | 292 | 1.6 | 9.7 | 0.00 | 0.00 | 0.00 | 70 | 1021.0 |
| 20260503192305 | 16 | 292 | 1.6 | 6.4 | 0.00 | 0.00 | 0.00 | 70 | 1020.9 |
| 20260503192204 | 16 | 292 | 1.6 | 6.4 | 0.00 | 0.00 | 0.00 | 70 | 1021.0 |
| 20260503192104 | 16 | 293 | 1.6 | 6.4 | 0.00 | 0.00 | 0.00 | 70 | 1020.9 |
| 20260503192004 | 16 | 294 | 1.6 | 6.4 | 0.00 | 0.00 | 0.00 | 69 | 1021.0 |
| 20260503191904 | 16 | 293 | 1.6 | 6.4 | 0.00 | 0.00 | 0.00 | 69 | 1021.0 |
| 20260503191804 | 16 | 294 | 1.6 | 6.4 | 0.00 | 0.00 | 0.00 | 69 | 1020.9 |
| 20260503191704 | 16 | 295 | 1.6 | 6.4 | 0.00 | 0.00 | 0.00 | 69 | 1020.9 |
| 20260503191604 | 16 | 295 | 1.6 | 6.4 | 0.00 | 0.00 | 0.00 | 69 | 1020.9 |
| 20260503191504 | 16 | 293 | 0.0 | 6.4 | 0.00 | 0.00 | 0.00 | 69 | 1020.8 |
| 20260503191404 | 16 | 294 | 0.0 | 6.4 | 0.00 | 0.00 | 0.00 | 69 | 1020.9 |
| 20260503191304 | 16 | 294 | 0.0 | 6.4 | 0.00 | 0.00 | 0.00 | 69 | 1020.8 |
| 20260503191204 | 16 | 294 | 0.0 | 6.4 | 0.00 | 0.00 | 0.00 | 69 | 1020.8 |
| 20260503191104 | 16 | 294 | 0.0 | 6.4 | 0.00 | 0.00 | 0.00 | 68 | 1020.8 |
| 20260503191004 | 16 | 292 | 0.0 | 6.4 | 0.00 | 0.00 | 0.00 | 69 | 1020.7 |
| 20260503190904 | 16 | 292 | 0.0 | 3.2 | 0.00 | 0.00 | 0.00 | 68 | 1020.7 |
| 20260503190804 | 16 | 292 | 0.0 | 3.2 | 0.00 | 0.00 | 0.00 | 68 | 1020.7 |
| 20260503190704 | 16 | 292 | 0.0 | 3.2 | 0.00 | 0.00 | 0.00 | 68 | 1020.8 |
| 20260503190604 | 16 | 292 | 0.0 | 1.6 | 0.00 | 0.00 | 0.00 | 68 | 1020.8 |
| 20260503190504 | 16 | 292 | 0.0 | 1.6 | 0.00 | 0.00 | 0.00 | 68 | 1020.7 |
| 20260503190404 | 16 | 292 | 0.0 | 1.6 | 0.00 | 0.00 | 0.00 | 68 | 1020.8 |
| 20260503190304 | 16 | 292 | 0.0 | 1.6 | 0.00 | 0.00 | 0.00 | 68 | 1020.8 |
| 20260503190204 | 16 | 292 | 0.0 | 1.6 | 0.00 | 0.00 | 0.00 | 68 | 1020.6 |
| 20260503190103 | 16 | 292 | 0.0 | 3.2 | 0.00 | 0.00 | 0.00 | 68 | 1020.6 |
| 20260503190004 | 16 | 292 | 0.0 | 3.2 | 0.00 | 0.00 | 0.00 | 68 | 1020.7 |
| 20260503185904 | 16 | 292 | 0.0 | 3.2 | 0.00 | 0.00 | 0.00 | 68 | 1020.7 |
| 20260503185804 | 16 | 292 | 0.0 | 3.2 | 0.00 | 0.00 | 0.00 | 68 | 1020.7 |
| 20260503185704 | 16 | 292 | 0.0 | 3.2 | 0.00 | 0.00 | 0.00 | 68 | 1020.7 |
| 20260503185604 | 17 | 292 | 0.0 | 3.2 | 0.00 | 0.00 | 0.00 | 68 | 1020.6 |
| 20260503185504 | 17 | 292 | 0.0 | 3.2 | 0.00 | 0.00 | 0.00 | 68 | 1020.6 |
| 20260503185404 | 17 | 292 | 0.0 | 3.2 | 0.00 | 0.00 | 0.00 | 68 | 1020.6 |
| 20260503185305 | 17 | 292 | 0.0 | 3.2 | 0.00 | 0.00 | 0.00 | 68 | 1020.5 |
| 20260503185203 | 17 | 292 | 0.0 | 3.2 | 0.00 | 0.00 | 0.00 | 68 | 1020.6 |
| 20260503185103 | 17 | 292 | 0.0 | 9.7 | 0.00 | 0.00 | 0.00 | 68 | 1020.5 |
| 20260503185004 | 17 | 295 | 0.0 | 9.7 | 0.00 | 0.00 | 0.00 | 68 | 1020.5 |
| 20260503184903 | 17 | 298 | 1.6 | 9.7 | 0.00 | 0.00 | 0.00 | 68 | 1020.5 |
| 20260503184803 | 17 | 300 | 1.6 | 9.7 | 0.00 | 0.00 | 0.00 | 68 | 1020.5 |
| 20260503184704 | 17 | 300 | 1.6 | 9.7 | 0.00 | 0.00 | 0.00 | 68 | 1020.5 |
| 20260503184603 | 17 | 299 | 1.6 | 9.7 | 0.00 | 0.00 | 0.00 | 68 | 1020.5 |
| 20260503184503 | 17 | 301 | 1.6 | 9.7 | 0.00 | 0.00 | 0.00 | 68 | 1020.5 |
| 20260503184403 | 17 | 301 | 1.6 | 9.7 | 0.00 | 0.00 | 0.00 | 68 | 1020.5 |
| 20260503184303 | 17 | 301 | 1.6 | 9.7 | 0.00 | 0.00 | 0.00 | 68 | 1020.5 |
| 20260503184203 | 17 | 300 | 3.2 | 9.7 | 0.00 | 0.00 | 0.00 | 68 | 1020.5 |
| 20260503184103 | 17 | 303 | 1.6 | 8.0 | 0.00 | 0.00 | 0.00 | 68 | 1020.4 |
| 20260503184003 | 17 | 303 | 3.2 | 8.0 | 0.00 | 0.00 | 0.00 | 68 | 1020.4 |
| 20260503183903 | 17 | 302 | 3.2 | 8.0 | 0.00 | 0.00 | 0.00 | 68 | 1020.4 |
| 20260503183803 | 17 | 302 | 3.2 | 8.0 | 0.00 | 0.00 | 0.00 | 67 | 1020.3 |
| 20260503183703 | 17 | 303 | 3.2 | 9.7 | 0.00 | 0.00 | 0.00 | 67 | 1020.3 |
| 20260503183603 | 17 | 303 | 3.2 | 9.7 | 0.00 | 0.00 | 0.00 | 67 | 1020.3 |
| 20260503183503 | 17 | 303 | 3.2 | 9.7 | 0.00 | 0.00 | 0.00 | 67 | 1020.3 |
| 20260503183403 | 17 | 303 | 3.2 | 9.7 | 0.00 | 0.00 | 0.00 | 67 | 1020.3 |
| 20260503183303 | 17 | 305 | 3.2 | 9.7 | 0.00 | 0.00 | 0.00 | 67 | 1020.2 |
| 20260503183203 | 17 | 306 | 3.2 | 9.7 | 0.00 | 0.00 | 0.00 | 67 | 1020.2 |
| 20260503183103 | 17 | 304 | 3.2 | 9.7 | 0.00 | 0.00 | 0.00 | 67 | 1020.2 |
| 20260503183003 | 17 | 305 | 3.2 | 9.7 | 0.00 | 0.00 | 0.00 | 67 | 1020.2 |
| 20260503182903 | 17 | 305 | 4.8 | 9.7 | 0.00 | 0.00 | 0.00 | 67 | 1020.2 |
| 20260503182803 | 17 | 305 | 3.2 | 9.7 | 0.00 | 0.00 | 0.00 | 67 | 1020.2 |
| 20260503182704 | 17 | 303 | 4.8 | 9.7 | 0.00 | 0.00 | 0.00 | 67 | 1020.1 |
| 20260503182603 | 17 | 303 | 4.8 | 9.7 | 0.00 | 0.00 | 0.00 | 67 | 1020.3 |
| 20260503182503 | 17 | 303 | 4.8 | 9.7 | 0.00 | 0.00 | 0.00 | 67 | 1020.2 |
| 20260503182403 | 17 | 302 | 3.2 | 9.7 | 0.00 | 0.00 | 0.00 | 67 | 1020.3 |
| 20260503182305 | 17 | 301 | 3.2 | 9.7 | 0.00 | 0.00 | 0.00 | 67 | 1020.2 |
| 20260503182203 | 17 | 300 | 3.2 | 9.7 | 0.00 | 0.00 | 0.00 | 67 | 1020.2 |
| 20260503182103 | 17 | 302 | 3.2 | 9.7 | 0.00 | 0.00 | 0.00 | 67 | 1020.3 |
| 20260503182004 | 17 | 301 | 3.2 | 9.7 | 0.00 | 0.00 | 0.00 | 67 | 1020.2 |
| 20260503181903 | 17 | 300 | 3.2 | 9.7 | 0.00 | 0.00 | 0.00 | 67 | 1020.1 |
| 20260503181803 | 17 | 300 | 3.2 | 9.7 | 0.00 | 0.00 | 0.00 | 67 | 1020.1 |
| 20260503181703 | 17 | 302 | 3.2 | 8.0 | 0.00 | 0.00 | 0.00 | 67 | 1020.2 |
| 20260503181603 | 17 | 303 | 3.2 | 8.0 | 0.00 | 0.00 | 0.00 | 67 | 1020.2 |
| 20260503181504 | 17 | 303 | 3.2 | 8.0 | 0.00 | 0.00 | 0.00 | 67 | 1020.2 |
| 20260503181403 | 17 | 304 | 3.2 | 8.0 | 0.00 | 0.00 | 0.00 | 67 | 1020.2 |
| 20260503181303 | 17 | 303 | 3.2 | 8.0 | 0.00 | 0.00 | 0.00 | 66 | 1020.3 |
| 20260503181203 | 17 | 303 | 3.2 | 8.0 | 0.00 | 0.00 | 0.00 | 66 | 1020.3 |
| 20260503181103 | 17 | 301 | 4.8 | 9.7 | 0.00 | 0.00 | 0.00 | 66 | 1020.2 |
| 20260503181004 | 17 | 300 | 4.8 | 12.9 | 0.00 | 0.00 | 0.00 | 66 | 1020.3 |
| 20260503180903 | 17 | 299 | 4.8 | 12.9 | 0.00 | 0.00 | 0.00 | 66 | 1020.3 |
| 20260503180803 | 17 | 299 | 4.8 | 12.9 | 0.00 | 0.00 | 0.00 | 66 | 1020.1 |
| 20260503180703 | 17 | 298 | 4.8 | 12.9 | 0.00 | 0.00 | 0.00 | 66 | 1020.0 |
| 20260503180603 | 17 | 299 | 6.4 | 12.9 | 0.00 | 0.00 | 0.00 | 66 | 1020.1 |
| 20260503180503 | 17 | 300 | 6.4 | 12.9 | 0.00 | 0.00 | 0.00 | 66 | 1020.1 |
| 20260503180403 | 17 | 300 | 6.4 | 12.9 | 0.00 | 0.00 | 0.00 | 66 | 1020.0 |
| 20260503180303 | 17 | 301 | 6.4 | 12.9 | 0.00 | 0.00 | 0.00 | 66 | 1020.0 |
| 20260503180203 | 17 | 300 | 6.4 | 12.9 | 0.00 | 0.00 | 0.00 | 66 | 1020.0 |
| 20260503180103 | 17 | 301 | 6.4 | 12.9 | 0.00 | 0.00 | 0.00 | 65 | 1020.1 |
| 20260503180003 | 17 | 300 | 6.4 | 12.9 | 0.00 | 0.00 | 0.00 | 65 | 1020.1 |
| 20260503175903 | 17 | 300 | 6.4 | 12.9 | 0.00 | 0.00 | 0.00 | 65 | 1020.1 |
| 20260503175803 | 17 | 301 | 6.4 | 12.9 | 0.00 | 0.00 | 0.00 | 65 | 1020.0 |
| 20260503175703 | 17 | 301 | 6.4 | 12.9 | 0.00 | 0.00 | 0.00 | 65 | 1020.0 |
| 20260503175603 | 17 | 300 | 6.4 | 11.3 | 0.00 | 0.00 | 0.00 | 64 | 1020.0 |
| 20260503175503 | 17 | 299 | 6.4 | 11.3 | 0.00 | 0.00 | 0.00 | 64 | 1020.0 |
| 20260503175403 | 17 | 299 | 6.4 | 11.3 | 0.00 | 0.00 | 0.00 | 64 | 1020.0 |
| 20260503175304 | 17 | 297 | 6.4 | 12.9 | 0.00 | 0.00 | 0.00 | 64 | 1020.0 |
| 20260503175203 | 17 | 298 | 6.4 | 12.9 | 0.00 | 0.00 | 0.00 | 64 | 1020.0 |
| 20260503175103 | 17 | 298 | 6.4 | 12.9 | 0.00 | 0.00 | 0.00 | 64 | 1020.0 |
| 20260503175003 | 17 | 299 | 6.4 | 12.9 | 0.00 | 0.00 | 0.00 | 63 | 1020.0 |
| 20260503174903 | 17 | 299 | 6.4 | 12.9 | 0.00 | 0.00 | 0.00 | 63 | 1019.9 |
| 20260503174803 | 17 | 299 | 6.4 | 12.9 | 0.00 | 0.00 | 0.00 | 63 | 1019.8 |
| 20260503174703 | 17 | 299 | 6.4 | 12.9 | 0.00 | 0.00 | 0.00 | 63 | 1019.9 |
| 20260503174603 | 17 | 298 | 6.4 | 12.9 | 0.00 | 0.00 | 0.00 | 63 | 1020.0 |
| 20260503174503 | 17 | 299 | 6.4 | 12.9 | 0.00 | 0.00 | 0.00 | 63 | 1019.9 |
| 20260503174403 | 17 | 301 | 6.4 | 12.9 | 0.00 | 0.00 | 0.00 | 62 | 1019.9 |
| 20260503174303 | 17 | 302 | 6.4 | 11.3 | 0.00 | 0.00 | 0.00 | 62 | 1020.0 |
| 20260503174203 | 17 | 301 | 6.4 | 11.3 | 0.00 | 0.00 | 0.00 | 62 | 1020.0 |
| 20260503174103 | 17 | 300 | 6.4 | 11.3 | 0.00 | 0.00 | 0.00 | 62 | 1020.0 |
| 20260503174003 | 17 | 300 | 4.8 | 11.3 | 0.00 | 0.00 | 0.00 | 61 | 1019.9 |
| 20260503173903 | 17 | 300 | 4.8 | 11.3 | 0.00 | 0.00 | 0.00 | 61 | 1020.0 |
| 20260503173803 | 18 | 300 | 4.8 | 11.3 | 0.00 | 0.00 | 0.00 | 61 | 1020.0 |
| 20260503173703 | 18 | 299 | 4.8 | 11.3 | 0.00 | 0.00 | 0.00 | 61 | 1020.0 |
| 20260503173603 | 18 | 300 | 4.8 | 11.3 | 0.00 | 0.00 | 0.00 | 61 | 1020.0 |
| 20260503173503 | 18 | 298 | 4.8 | 11.3 | 0.00 | 0.00 | 0.00 | 61 | 1020.0 |
| 20260503173403 | 18 | 297 | 4.8 | 11.3 | 0.00 | 0.00 | 0.00 | 61 | 1020.0 |
| 20260503173303 | 18 | 299 | 4.8 | 11.3 | 0.00 | 0.00 | 0.00 | 61 | 1020.0 |
| 20260503173203 | 18 | 301 | 4.8 | 11.3 | 0.00 | 0.00 | 0.00 | 61 | 1020.0 |
| 20260503173103 | 18 | 301 | 4.8 | 11.3 | 0.00 | 0.00 | 0.00 | 61 | 1019.9 |
| 20260503173003 | 18 | 301 | 6.4 | 12.9 | 0.00 | 0.00 | 0.00 | 61 | 1020.0 |
| 20260503172903 | 18 | 301 | 6.4 | 12.9 | 0.00 | 0.00 | 0.00 | 61 | 1020.0 |
| 20260503172803 | 18 | 301 | 6.4 | 12.9 | 0.00 | 0.00 | 0.00 | 61 | 1019.9 |
| 20260503172703 | 18 | 302 | 6.4 | 12.9 | 0.00 | 0.00 | 0.00 | 61 | 1020.0 |
| 20260503172603 | 18 | 303 | 6.4 | 12.9 | 0.00 | 0.00 | 0.00 | 61 | 1019.9 |
| 20260503172503 | 18 | 302 | 6.4 | 12.9 | 0.00 | 0.00 | 0.00 | 61 | 1020.0 |
| 20260503172403 | 18 | 301 | 6.4 | 12.9 | 0.00 | 0.00 | 0.00 | 62 | 1020.0 |
| 20260503172305 | 18 | 300 | 6.4 | 12.9 | 0.00 | 0.00 | 0.00 | 62 | 1019.9 |
| 20260503172203 | 18 | 300 | 6.4 | 12.9 | 0.00 | 0.00 | 0.00 | 62 | 1019.9 |
| 20260503172104 | 18 | 300 | 6.4 | 12.9 | 0.00 | 0.00 | 0.00 | 62 | 1019.8 |
| 20260503172004 | 18 | 300 | 6.4 | 12.9 | 0.00 | 0.00 | 0.00 | 62 | 1019.9 |
| 20260503171904 | 18 | 300 | 6.4 | 12.9 | 0.00 | 0.00 | 0.00 | 62 | 1019.8 |
| 20260503171804 | 18 | 300 | 6.4 | 12.9 | 0.00 | 0.00 | 0.00 | 61 | 1019.9 |
| 20260503171704 | 18 | 299 | 6.4 | 12.9 | 0.00 | 0.00 | 0.00 | 61 | 1019.8 |
| 20260503171604 | 18 | 298 | 6.4 | 12.9 | 0.00 | 0.00 | 0.00 | 62 | 1019.8 |
| 20260503171504 | 18 | 299 | 6.4 | 12.9 | 0.00 | 0.00 | 0.00 | 62 | 1019.7 |
| 20260503171404 | 18 | 299 | 6.4 | 12.9 | 0.00 | 0.00 | 0.00 | 62 | 1019.8 |
| 20260503171304 | 18 | 299 | 6.4 | 12.9 | 0.00 | 0.00 | 0.00 | 62 | 1019.8 |
| 20260503171204 | 18 | 298 | 4.8 | 12.9 | 0.00 | 0.00 | 0.00 | 62 | 1019.8 |
| 20260503171104 | 18 | 298 | 4.8 | 12.9 | 0.00 | 0.00 | 0.00 | 62 | 1019.8 |
| 20260503171004 | 18 | 297 | 4.8 | 12.9 | 0.00 | 0.00 | 0.00 | 62 | 1019.8 |
| 20260503170904 | 18 | 296 | 4.8 | 12.9 | 0.00 | 0.00 | 0.00 | 62 | 1019.9 |
| 20260503170804 | 18 | 295 | 4.8 | 12.9 | 0.00 | 0.00 | 0.00 | 62 | 1019.8 |
| 20260503170705 | 18 | 296 | 4.8 | 11.3 | 0.00 | 0.00 | 0.00 | 62 | 1019.9 |
| 20260503170604 | 18 | 295 | 4.8 | 11.3 | 0.00 | 0.00 | 0.00 | 62 | 1019.9 |
| 20260503170504 | 18 | 294 | 4.8 | 11.3 | 0.00 | 0.00 | 0.00 | 62 | 1019.9 |
| 20260503170404 | 18 | 293 | 4.8 | 11.3 | 0.00 | 0.00 | 0.00 | 62 | 1019.9 |
| 20260503170304 | 18 | 292 | 4.8 | 11.3 | 0.00 | 0.00 | 0.00 | 62 | 1019.9 |
| 20260503170204 | 18 | 292 | 4.8 | 11.3 | 0.00 | 0.00 | 0.00 | 62 | 1019.9 |
| 20260503170104 | 18 | 291 | 4.8 | 11.3 | 0.00 | 0.00 | 0.00 | 63 | 1019.7 |
| 20260503160203 | 19 | 297 | 4.8 | 16.1 | 0.00 | 0.00 | 0.00 | 60 | 1019.8 |
| 20260503160103 | 19 | 296 | 6.4 | 16.1 | 0.00 | 0.00 | 0.00 | 60 | 1019.8 |
| 20260503151003 | 19 | 298 | 4.8 | 16.1 | 0.00 | 0.00 | 0.00 | 57 | 1019.9 |
| 20260503150903 | 19 | 297 | 4.8 | 16.1 | 0.00 | 0.00 | 0.00 | 58 | 1019.9 |
| 20260503150803 | 19 | 298 | 4.8 | 16.1 | 0.00 | 0.00 | 0.00 | 58 | 1020.0 |
| 20260503150703 | 19 | 297 | 4.8 | 16.1 | 0.00 | 0.00 | 0.00 | 58 | 1020.0 |
| 20260503150603 | 19 | 296 | 6.4 | 16.1 | 0.00 | 0.00 | 0.00 | 59 | 1020.0 |
| 20260503150503 | 19 | 297 | 6.4 | 16.1 | 0.00 | 0.00 | 0.00 | 59 | 1020.0 |
| 20260503150404 | 19 | 296 | 6.4 | 16.1 | 0.00 | 0.00 | 0.00 | 59 | 1020.0 |
| 20260503150304 | 19 | 297 | 8.0 | 16.1 | 0.00 | 0.00 | 0.00 | 59 | 1020.0 |
| 20260503150204 | 19 | 298 | 8.0 | 20.9 | 0.00 | 0.00 | 0.00 | 59 | 1020.0 |
| 20260503150104 | 19 | 299 | 8.0 | 20.9 | 0.00 | 0.00 | 0.00 | 59 | 1020.1 |
| 20260503140303 | 20 | 299 | 8.0 | 20.9 | 0.00 | 0.00 | 0.00 | 61 | 1020.0 |
| 20260503140103 | 20 | 297 | 8.0 | 22.5 | 0.00 | 0.00 | 0.00 | 61 | 1019.9 |
| 20260503131403 | 19 | 300 | 8.0 | 22.5 | 0.00 | 0.00 | 0.00 | 60 | 1020.4 |
| 20260503131303 | 19 | 300 | 8.0 | 22.5 | 0.00 | 0.00 | 0.00 | 60 | 1020.5 |
| 20260503131203 | 19 | 300 | 9.7 | 22.5 | 0.00 | 0.00 | 0.00 | 60 | 1020.5 |
| 20260503131103 | 19 | 301 | 9.7 | 22.5 | 0.00 | 0.00 | 0.00 | 60 | 1020.5 |
| 20260503130903 | 19 | 301 | 11.3 | 30.6 | 0.00 | 0.00 | 0.00 | 60 | 1020.3 |
| 20260503130803 | 19 | 300 | 11.3 | 30.6 | 0.00 | 0.00 | 0.00 | 60 | 1020.5 |
| 20260503130703 | 19 | 299 | 11.3 | 30.6 | 0.00 | 0.00 | 0.00 | 60 | 1020.5 |
| 20260503130603 | 19 | 298 | 11.3 | 30.6 | 0.00 | 0.00 | 0.00 | 60 | 1020.3 |
| 20260503130503 | 19 | 298 | 9.7 | 30.6 | 0.00 | 0.00 | 0.00 | 60 | 1020.3 |
| 20260503130403 | 19 | 297 | 9.7 | 30.6 | 0.00 | 0.00 | 0.00 | 60 | 1020.4 |
| 20260503130303 | 19 | 297 | 9.7 | 30.6 | 0.00 | 0.00 | 0.00 | 60 | 1020.4 |
| 20260503130203 | 20 | 296 | 9.7 | 30.6 | 0.00 | 0.00 | 0.00 | 60 | 1020.4 |
| 20260503130103 | 20 | 296 | 9.7 | 30.6 | 0.00 | 0.00 | 0.00 | 60 | 1020.4 |
| 20260503120204 | 20 | 300 | 6.4 | 24.1 | 0.00 | 0.00 | 0.00 | 59 | 1021.0 |
| 20260503120104 | 20 | 301 | 8.0 | 24.1 | 0.00 | 0.00 | 0.00 | 59 | 1021.0 |
| 20260503110803 | 20 | 301 | 4.8 | 24.1 | 0.00 | 0.00 | 0.00 | 56 | 1021.0 |
| 20260503110703 | 20 | 302 | 4.8 | 24.1 | 0.00 | 0.00 | 0.00 | 56 | 1020.9 |
| 20260503110603 | 20 | 302 | 4.8 | 24.1 | 0.00 | 0.00 | 0.00 | 56 | 1020.9 |
| 20260503110503 | 20 | 301 | 4.8 | 24.1 | 0.00 | 0.00 | 0.00 | 56 | 1020.9 |
| 20260503110404 | 20 | 299 | 4.8 | 24.1 | 0.00 | 0.00 | 0.00 | 56 | 1020.9 |
| 20260503110303 | 20 | 300 | 3.2 | 22.5 | 0.00 | 0.00 | 0.00 | 57 | 1021.0 |
| 20260503110203 | 20 | 297 | 3.2 | 19.3 | 0.00 | 0.00 | 0.00 | 57 | 1020.8 |
| 20260503100204 | 19 | 295 | 8.0 | 17.7 | 0.00 | 0.00 | 0.00 | 58 | 1021.1 |
| 20260503100104 | 19 | 294 | 8.0 | 17.7 | 0.00 | 0.00 | 0.00 | 58 | 1021.2 |
| 20260503090503 | 20 | 293 | 6.4 | 22.5 | 0.00 | 0.00 | 0.00 | 54 | 1021.3 |
| 20260503090403 | 20 | 292 | 6.4 | 22.5 | 0.00 | 0.00 | 0.00 | 55 | 1021.4 |
| 20260503090303 | 20 | 293 | 6.4 | 22.5 | 0.00 | 0.00 | 0.00 | 55 | 1021.4 |
| 20260503090203 | 20 | 296 | 6.4 | 22.5 | 0.00 | 0.00 | 0.00 | 55 | 1021.3 |
| 20260503081604 | 20 | 293 | 4.8 | 19.3 | 0.00 | 0.00 | 0.00 | 53 | 1021.1 |
| 20260503081504 | 20 | 294 | 4.8 | 19.3 | 0.00 | 0.00 | 0.00 | 53 | 1021.2 |
| 20260503081404 | 20 | 295 | 4.8 | 19.3 | 0.00 | 0.00 | 0.00 | 53 | 1021.3 |
| 20260503081304 | 20 | 295 | 4.8 | 19.3 | 0.00 | 0.00 | 0.00 | 53 | 1021.3 |
| 20260503081204 | 20 | 297 | 4.8 | 19.3 | 0.00 | 0.00 | 0.00 | 53 | 1021.2 |
| 20260503081104 | 20 | 297 | 4.8 | 19.3 | 0.00 | 0.00 | 0.00 | 53 | 1021.1 |
| 20260503081004 | 20 | 297 | 3.2 | 19.3 | 0.00 | 0.00 | 0.00 | 53 | 1021.2 |
| 20260503080904 | 20 | 296 | 4.8 | 19.3 | 0.00 | 0.00 | 0.00 | 53 | 1021.1 |
| 20260503080804 | 20 | 298 | 4.8 | 19.3 | 0.00 | 0.00 | 0.00 | 53 | 1021.2 |
| 20260503080704 | 20 | 299 | 3.2 | 12.9 | 0.00 | 0.00 | 0.00 | 53 | 1021.2 |
| 20260503080604 | 20 | 298 | 3.2 | 12.9 | 0.00 | 0.00 | 0.00 | 53 | 1021.2 |
| 20260503080504 | 20 | 298 | 3.2 | 12.9 | 0.00 | 0.00 | 0.00 | 53 | 1021.3 |
| 20260503080404 | 20 | 295 | 3.2 | 17.7 | 0.00 | 0.00 | 0.00 | 53 | 1021.3 |
| 20260503080304 | 20 | 296 | 4.8 | 17.7 | 0.00 | 0.00 | 0.00 | 52 | 1021.1 |
| 20260503080204 | 20 | 295 | 4.8 | 17.7 | 0.00 | 0.00 | 0.00 | 52 | 1021.2 |
| 20260503080104 | 20 | 294 | 4.8 | 17.7 | 0.00 | 0.00 | 0.00 | 52 | 1021.2 |
| 20260503072904 | 20 | 294 | 4.8 | 24.1 | 0.00 | 0.00 | 0.00 | 50 | 1021.4 |
| 20260503072803 | 20 | 294 | 4.8 | 24.1 | 0.00 | 0.00 | 0.00 | 50 | 1021.4 |
| 20260503072703 | 20 | 293 | 3.2 | 24.1 | 0.00 | 0.00 | 0.00 | 49 | 1021.3 |
| 20260503072603 | 20 | 293 | 3.2 | 24.1 | 0.00 | 0.00 | 0.00 | 49 | 1021.3 |
| 20260503072503 | 20 | 292 | 3.2 | 24.1 | 0.00 | 0.00 | 0.00 | 49 | 1021.3 |
| 20260503072403 | 20 | 293 | 3.2 | 14.5 | 0.00 | 0.00 | 0.00 | 49 | 1021.3 |
| 20260503072305 | 20 | 294 | 3.2 | 11.3 | 0.00 | 0.00 | 0.00 | 49 | 1021.4 |
| 20260503072203 | 20 | 292 | 3.2 | 14.5 | 0.00 | 0.00 | 0.00 | 49 | 1021.4 |
| 20260503072103 | 20 | 296 | 3.2 | 14.5 | 0.00 | 0.00 | 0.00 | 49 | 1021.2 |
| 20260503072003 | 20 | 296 | 3.2 | 14.5 | 0.00 | 0.00 | 0.00 | 49 | 1021.3 |
| 20260503071903 | 20 | 292 | 3.2 | 14.5 | 0.00 | 0.00 | 0.00 | 49 | 1021.3 |
| 20260503071803 | 20 | 292 | 3.2 | 14.5 | 0.00 | 0.00 | 0.00 | 49 | 1021.3 |
| 20260503071703 | 20 | 291 | 3.2 | 14.5 | 0.00 | 0.00 | 0.00 | 49 | 1021.3 |
| 20260503071603 | 20 | 292 | 3.2 | 14.5 | 0.00 | 0.00 | 0.00 | 49 | 1021.3 |
| 20260503071503 | 20 | 292 | 3.2 | 14.5 | 0.00 | 0.00 | 0.00 | 49 | 1021.2 |
| 20260503071403 | 20 | 291 | 4.8 | 14.5 | 0.00 | 0.00 | 0.00 | 49 | 1021.3 |
| 20260503071303 | 20 | 291 | 4.8 | 14.5 | 0.00 | 0.00 | 0.00 | 49 | 1021.4 |
| 20260503071203 | 20 | 291 | 3.2 | 12.9 | 0.00 | 0.00 | 0.00 | 49 | 1021.4 |
| 20260503071103 | 20 | 290 | 3.2 | 14.5 | 0.00 | 0.00 | 0.00 | 49 | 1021.3 |
| 20260503071003 | 20 | 290 | 3.2 | 14.5 | 0.00 | 0.00 | 0.00 | 49 | 1021.4 |
| 20260503070903 | 20 | 293 | 3.2 | 14.5 | 0.00 | 0.00 | 0.00 | 49 | 1021.4 |
| 20260503070803 | 20 | 294 | 3.2 | 14.5 | 0.00 | 0.00 | 0.00 | 49 | 1021.4 |
| 20260503070703 | 20 | 297 | 3.2 | 14.5 | 0.00 | 0.00 | 0.00 | 49 | 1021.4 |
| 20260503070603 | 20 | 298 | 3.2 | 14.5 | 0.00 | 0.00 | 0.00 | 49 | 1021.4 |
| 20260503070503 | 20 | 297 | 3.2 | 14.5 | 0.00 | 0.00 | 0.00 | 49 | 1021.4 |
| 20260503070403 | 20 | 297 | 3.2 | 14.5 | 0.00 | 0.00 | 0.00 | 49 | 1021.4 |
| 20260503070303 | 20 | 297 | 3.2 | 14.5 | 0.00 | 0.00 | 0.00 | 49 | 1021.4 |
| 20260503070203 | 20 | 298 | 3.2 | 14.5 | 0.00 | 0.00 | 0.00 | 49 | 1021.4 |
| 20260503070103 | 20 | 298 | 3.2 | 14.5 | 0.00 | 0.00 | 0.00 | 49 | 1021.4 |
| 20260503060304 | 18 | 292 | 3.2 | 9.7 | 0.00 | 0.00 | 0.00 | 53 | 1021.2 |
| 20260503060204 | 18 | 292 | 3.2 | 12.9 | 0.00 | 0.00 | 0.00 | 53 | 1021.3 |
| 20260503060104 | 18 | 292 | 3.2 | 12.9 | 0.00 | 0.00 | 0.00 | 53 | 1021.3 |
| 20260503055104 | 19 | 299 | 1.6 | 11.3 | 0.00 | 0.00 | 0.00 | 53 | 1021.2 |
| 20260503055004 | 19 | 299 | 3.2 | 11.3 | 0.00 | 0.00 | 0.00 | 53 | 1021.2 |
| 20260503054904 | 19 | 303 | 1.6 | 9.7 | 0.00 | 0.00 | 0.00 | 53 | 1021.1 |
| 20260503054804 | 19 | 297 | 1.6 | 9.7 | 0.00 | 0.00 | 0.00 | 53 | 1021.2 |
| 20260503054704 | 19 | 300 | 1.6 | 9.7 | 0.00 | 0.00 | 0.00 | 54 | 1021.1 |
| 20260503054604 | 19 | 300 | 1.6 | 9.7 | 0.00 | 0.00 | 0.00 | 54 | 1021.1 |
| 20260503054504 | 19 | 298 | 1.6 | 9.7 | 0.00 | 0.00 | 0.00 | 54 | 1021.1 |
| 20260503054404 | 19 | 297 | 1.6 | 9.7 | 0.00 | 0.00 | 0.00 | 54 | 1021.2 |
| 20260503054304 | 19 | 297 | 1.6 | 9.7 | 0.00 | 0.00 | 0.00 | 54 | 1021.2 |
| 20260503054204 | 19 | 296 | 1.6 | 9.7 | 0.00 | 0.00 | 0.00 | 55 | 1021.1 |
| 20260503054104 | 19 | 290 | 0.0 | 9.7 | 0.00 | 0.00 | 0.00 | 55 | 1021.2 |
| 20260503054004 | 18 | 288 | 0.0 | 9.7 | 0.00 | 0.00 | 0.00 | 55 | 1021.2 |
| 20260503053904 | 18 | 287 | 1.6 | 11.3 | 0.00 | 0.00 | 0.00 | 55 | 1021.1 |
| 20260503053804 | 18 | 287 | 1.6 | 11.3 | 0.00 | 0.00 | 0.00 | 56 | 1021.1 |
| 20260503053704 | 18 | 290 | 1.6 | 11.3 | 0.00 | 0.00 | 0.00 | 56 | 1021.1 |
| 20260503053604 | 18 | 292 | 1.6 | 11.3 | 0.00 | 0.00 | 0.00 | 56 | 1021.1 |
| 20260503053504 | 18 | 293 | 1.6 | 11.3 | 0.00 | 0.00 | 0.00 | 56 | 1021.1 |
| 20260503053404 | 18 | 294 | 1.6 | 11.3 | 0.00 | 0.00 | 0.00 | 57 | 1021.1 |
| 20260503053304 | 18 | 294 | 1.6 | 11.3 | 0.00 | 0.00 | 0.00 | 57 | 1021.1 |
| 20260503053204 | 18 | 294 | 1.6 | 11.3 | 0.00 | 0.00 | 0.00 | 57 | 1021.1 |
| 20260503053104 | 18 | 293 | 1.6 | 11.3 | 0.00 | 0.00 | 0.00 | 57 | 1021.1 |
| 20260503053004 | 18 | 293 | 1.6 | 11.3 | 0.00 | 0.00 | 0.00 | 58 | 1021.2 |
| 20260503052904 | 18 | 296 | 1.6 | 8.0 | 0.00 | 0.00 | 0.00 | 58 | 1021.2 |
| 20260503052803 | 17 | 295 | 1.6 | 8.0 | 0.00 | 0.00 | 0.00 | 58 | 1021.2 |
| 20260503052704 | 17 | 296 | 1.6 | 11.3 | 0.00 | 0.00 | 0.00 | 58 | 1021.3 |
| 20260503052603 | 17 | 295 | 1.6 | 11.3 | 0.00 | 0.00 | 0.00 | 59 | 1021.2 |
| 20260503052504 | 17 | 295 | 1.6 | 11.3 | 0.00 | 0.00 | 0.00 | 59 | 1021.1 |
| 20260503052403 | 17 | 294 | 1.6 | 11.3 | 0.00 | 0.00 | 0.00 | 59 | 1021.2 |
| 20260503052305 | 17 | 294 | 1.6 | 11.3 | 0.00 | 0.00 | 0.00 | 59 | 1021.2 |
| 20260503052204 | 17 | 294 | 1.6 | 11.3 | 0.00 | 0.00 | 0.00 | 60 | 1021.2 |
| 20260503052103 | 17 | 296 | 1.6 | 11.3 | 0.00 | 0.00 | 0.00 | 60 | 1021.3 |
| 20260503052003 | 16 | 296 | 1.6 | 11.3 | 0.00 | 0.00 | 0.00 | 60 | 1021.2 |
| 20260503051903 | 16 | 297 | 1.6 | 11.3 | 0.00 | 0.00 | 0.00 | 60 | 1021.1 |